ECMWFFLT1_500_temp_075.txt.gz
Temp
-27 -27 -27 -27 -27 -27 -27 -28 -29 -30 -31 -32 -32 -32 -32 -32 -32 -32 -32 -32 -32 -32 -32 -32 -31 -31 -31 -31 -31 -30 -30 -30 -30 -29 -29 -29 -29 -28 -28 -27 -27 -27 -27 -27 -27 -27 -26 -26 -25 -25 -25 -25 -26 -26 -26 -25 -25 -25 -24 -24 -23 -23 -23
-28 -28 -28 -27 -27 -28 -28 -29 -31 -32 -32 -33 -33 -32 -33 -33 -33 -32 -32 -32 -32 -32 -32 -32 -32 -32 -31 -31 -31 -31 -30 -30 -31 -30 -30 -30 -30 -29 -29 -28 -27 -27 -27 -27 -27 -27 -27 -26 -26 -26 -26 -26 -26 -26 -26 -26 -25 -25 -24 -24 -24 -23 -23
-28 -28 -28 -28 -28 -28 -29 -31 -32 -33 -34 -34 -34 -33 -33 -33 -33 -33 -33 -33 -33 -33 -33 -33 -32 -32 -32 -32 -31 -31 -31 -31 -31 -31 -31 -31 -30 -30 -29 -29 -28 -27 -27 -27 -28 -28 -27 -27 -26 -26 -26 -26 -26 -26 -26 -26 -25 -25 -25 -24 -24 -24 -23
-28 -28 -28 -28 -29 -30 -31 -32 -33 -33 -34 -34 -34 -34 -33 -33 -33 -33 -33 -33 -33 -33 -33 -33 -33 -32 -32 -32 -32 -32 -31 -31 -31 -32 -31 -31 -31 -31 -30 -29 -29 -28 -28 -28 -28 -28 -28 -27 -27 -26 -26 -26 -26 -26 -26 -26 -26 -25 -25 -25 -24 -24 -24
-29 -29 -29 -29 -30 -31 -32 -33 -33 -34 -34 -35 -34 -34 -34 -34 -33 -33 -33 -33 -33 -33 -33 -33 -33 -33 -33 -32 -32 -32 -32 -32 -32 -32 -32 -32 -31 -31 -30 -30 -29 -29 -28 -28 -28 -28 -28 -27 -27 -27 -27 -27 -27 -27 -27 -26 -26 -26 -25 -25 -25 -24 -24
-29 -29 -30 -30 -31 -32 -33 -33 -34 -34 -34 -35 -35 -34 -34 -34 -34 -33 -33 -33 -33 -33 -33 -33 -33 -33 -33 -33 -33 -33 -32 -32 -32 -32 -32 -32 -32 -31 -31 -30 -30 -29 -29 -29 -29 -29 -28 -28 -27 -27 -27 -27 -27 -27 -27 -27 -26 -26 -26 -25 -25 -25 -25
-29 -30 -31 -32 -32 -33 -33 -34 -34 -34 -35 -35 -35 -34 -34 -34 -34 -34 -34 -33 -34 -34 -34 -34 -34 -34 -33 -33 -33 -33 -33 -32 -33 -33 -32 -32 -32 -32 -31 -31 -30 -30 -29 -29 -29 -29 -28 -28 -28 -28 -28 -27 -27 -27 -27 -27 -27 -26 -26 -26 -26 -25 -25
-30 -31 -32 -33 -33 -33 -33 -34 -34 -34 -35 -35 -35 -35 -34 -34 -34 -34 -34 -34 -34 -34 -34 -34 -34 -34 -34 -34 -33 -33 -33 -33 -33 -33 -32 -32 -32 -32 -32 -31 -30 -30 -30 -29 -29 -29 -29 -28 -28 -28 -28 -28 -27 -27 -27 -27 -27 -27 -26 -26 -26 -26 -26
-31 -32 -33 -33 -34 -34 -34 -34 -35 -35 -35 -35 -35 -35 -35 -34 -34 -34 -34 -34 -34 -34 -34 -34 -34 -34 -34 -34 -34 -34 -34 -33 -33 -33 -32 -32 -32 -32 -32 -31 -31 -30 -30 -30 -29 -29 -29 -29 -28 -28 -28 -28 -28 -28 -27 -27 -27 -27 -27 -26 -26 -26 -26
-32 -33 -34 -34 -34 -34 -34 -34 -35 -35 -35 -35 -35 -35 -35 -34 -34 -34 -34 -34 -34 -34 -34 -34 -34 -34 -34 -35 -35 -35 -34 -34 -33 -32 -32 -32 -32 -32 -32 -31 -31 -31 -30 -30 -30 -29 -29 -29 -29 -29 -28 -28 -28 -28 -28 -27 -27 -27 -27 -27 -27 -27 -27
-33 -34 -34 -34 -35 -35 -34 -35 -35 -35 -35 -35 -35 -35 -35 -34 -35 -35 -34 -34 -34 -34 -34 -34 -34 -34 -35 -35 -35 -35 -34 -34 -33 -33 -32 -32 -32 -32 -32 -31 -31 -31 -30 -30 -30 -30 -29 -29 -29 -29 -29 -28 -28 -28 -28 -28 -28 -27 -27 -27 -27 -27 -27
-33 -34 -34 -35 -35 -35 -35 -35 -36 -35 -35 -36 -35 -35 -35 -35 -35 -35 -35 -34 -34 -34 -34 -34 -34 -35 -35 -35 -35 -34 -34 -33 -33 -33 -32 -32 -32 -32 -32 -32 -31 -31 -31 -30 -30 -30 -29 -29 -29 -29 -29 -29 -29 -28 -28 -28 -28 -28 -28 -28 -28 -27 -27
-34 -34 -34 -35 -35 -35 -35 -36 -36 -36 -36 -36 -36 -35 -35 -35 -35 -35 -35 -35 -34 -34 -34 -34 -34 -35 -35 -35 -35 -34 -34 -33 -33 -33 -33 -32 -32 -32 -32 -32 -31 -31 -31 -30 -30 -30 -30 -29 -29 -29 -29 -29 -29 -29 -28 -28 -28 -28 -28 -28 -28 -27 -27
-34 -34 -35 -35 -35 -35 -35 -36 -36 -36 -36 -36 -36 -35 -35 -35 -35 -35 -35 -35 -34 -34 -34 -34 -34 -35 -35 -35 -34 -34 -34 -34 -33 -33 -33 -33 -32 -32 -32 -32 -31 -31 -31 -30 -30 -30 -30 -30 -29 -29 -29 -29 -29 -29 -29 -28 -28 -28 -28 -28 -28 -28 -28
-35 -35 -35 -35 -35 -35 -35 -36 -36 -36 -36 -36 -35 -35 -35 -35 -35 -35 -34 -34 -34 -34 -34 -34 -35 -35 -35 -34 -34 -34 -34 -34 -33 -33 -33 -33 -32 -32 -32 -31 -31 -31 -31 -31 -30 -30 -30 -30 -30 -29 -29 -29 -29 -29 -29 -29 -29 -29 -29 -28 -28 -28 -28
-35 -35 -35 -35 -35 -35 -35 -36 -36 -36 -36 -36 -35 -35 -35 -35 -35 -35 -34 -34 -34 -34 -34 -34 -35 -35 -35 -35 -34 -34 -34 -33 -33 -33 -33 -33 -32 -32 -32 -31 -31 -31 -31 -31 -31 -30 -30 -30 -30 -29 -29 -29 -29 -29 -29 -29 -29 -29 -29 -29 -29 -28 -28
-36 -36 -36 -35 -35 -35 -35 -36 -36 -36 -36 -35 -35 -35 -35 -35 -35 -35 -34 -34 -34 -34 -34 -35 -35 -35 -35 -35 -34 -34 -34 -33 -33 -33 -33 -33 -32 -32 -32 -31 -31 -31 -31 -31 -31 -30 -30 -30 -29 -29 -29 -29 -29 -29 -30 -30 -30 -29 -29 -29 -29 -29 -29
-36 -36 -36 -36 -36 -36 -35 -36 -36 -36 -35 -35 -35 -35 -35 -35 -35 -34 -34 -34 -34 -34 -35 -35 -35 -35 -35 -35 -34 -34 -34 -33 -33 -33 -33 -33 -32 -32 -31 -31 -31 -31 -31 -31 -31 -30 -30 -30 -29 -29 -29 -29 -29 -30 -30 -30 -30 -30 -30 -30 -29 -29 -29
-36 -36 -36 -36 -36 -36 -35 -35 -36 -35 -35 -35 -35 -35 -35 -35 -35 -34 -34 -34 -34 -35 -35 -35 -35 -35 -35 -35 -35 -34 -34 -34 -33 -33 -33 -33 -32 -32 -32 -32 -31 -31 -31 -31 -31 -30 -30 -30 -30 -29 -29 -30 -30 -30 -30 -30 -30 -30 -30 -30 -30 -29 -29
-36 -36 -36 -36 -36 -36 -35 -35 -35 -35 -35 -35 -35 -35 -35 -35 -34 -34 -34 -34 -34 -35 -35 -36 -36 -36 -35 -35 -35 -35 -34 -34 -33 -33 -33 -32 -32 -32 -32 -32 -32 -31 -31 -31 -31 -30 -30 -30 -30 -29 -29 -30 -30 -30 -30 -30 -30 -31 -31 -30 -30 -30 -29
-36 -36 -36 -36 -36 -36 -35 -35 -35 -35 -35 -35 -35 -35 -35 -34 -34 -34 -35 -35 -35 -35 -36 -36 -36 -36 -36 -35 -35 -35 -34 -34 -33 -33 -33 -32 -32 -32 -32 -32 -31 -31 -31 -31 -30 -30 -30 -30 -29 -29 -29 -30 -30 -30 -30 -31 -31 -31 -31 -30 -30 -30 -30
-36 -36 -36 -36 -36 -35 -35 -35 -35 -35 -35 -35 -35 -35 -35 -34 -35 -35 -35 -35 -35 -36 -36 -36 -36 -36 -35 -35 -35 -35 -34 -34 -33 -33 -33 -32 -32 -32 -32 -31 -31 -31 -31 -30 -30 -30 -30 -30 -30 -30 -30 -30 -30 -30 -31 -31 -31 -30 -30 -30 -30 -30 -30
-37 -36 -36 -36 -36 -35 -35 -35 -35 -35 -35 -35 -35 -35 -35 -35 -35 -35 -36 -36 -36 -36 -36 -36 -36 -36 -35 -35 -35 -34 -34 -34 -33 -33 -33 -33 -32 -32 -32 -31 -31 -31 -31 -30 -30 -30 -30 -30 -30 -30 -30 -30 -31 -31 -31 -31 -31 -30 -29 -30 -30 -30 -31
-37 -36 -36 -36 -36 -35 -35 -35 -35 -35 -35 -35 -35 -35 -35 -35 -35 -35 -36 -36 -36 -36 -36 -36 -36 -35 -35 -35 -35 -34 -34 -34 -33 -33 -33 -33 -32 -32 -31 -31 -31 -31 -31 -31 -30 -30 -30 -30 -30 -30 -30 -31 -31 -31 -31 -31 -30 -29 -29 -30 -30 -31 -32
-37 -36 -36 -36 -36 -35 -35 -35 -35 -35 -35 -35 -35 -35 -35 -35 -35 -35 -35 -35 -36 -36 -36 -36 -36 -35 -35 -35 -34 -34 -34 -33 -33 -33 -33 -33 -32 -32 -31 -31 -31 -31 -31 -31 -30 -30 -30 -30 -30 -31 -31 -31 -30 -30 -30 -30 -30 -30 -30 -31 -31 -31 -32
-37 -36 -36 -36 -36 -35 -35 -35 -35 -35 -35 -35 -35 -35 -35 -35 -35 -35 -35 -35 -35 -35 -35 -35 -35 -35 -35 -34 -34 -34 -34 -33 -33 -33 -33 -33 -32 -32 -31 -31 -31 -31 -31 -31 -30 -30 -31 -31 -31 -31 -30 -30 -30 -30 -30 -31 -31 -30 -31 -31 -31 -32 -32
-36 -36 -36 -36 -36 -35 -35 -35 -35 -35 -35 -35 -35 -35 -35 -35 -35 -35 -35 -35 -35 -35 -35 -35 -35 -34 -34 -34 -34 -34 -34 -33 -33 -33 -33 -32 -32 -32 -31 -31 -31 -31 -31 -31 -31 -31 -31 -31 -31 -30 -30 -30 -30 -30 -31 -31 -31 -31 -31 -31 -31 -32 -32
-36 -36 -36 -36 -36 -35 -35 -35 -35 -35 -35 -35 -35 -35 -35 -35 -35 -35 -35 -35 -35 -35 -35 -35 -34 -34 -34 -34 -34 -34 -33 -33 -33 -33 -32 -32 -32 -32 -31 -31 -31 -31 -31 -31 -31 -31 -31 -31 -31 -30 -30 -30 -31 -31 -31 -31 -31 -31 -30 -30 -31 -32 -32
-37 -36 -36 -36 -36 -36 -35 -35 -35 -35 -35 -35 -34 -34 -34 -34 -35 -35 -35 -34 -34 -34 -34 -34 -34 -34 -34 -34 -34 -33 -33 -33 -33 -33 -32 -32 -32 -32 -32 -31 -31 -31 -31 -31 -31 -31 -31 -31 -31 -31 -31 -31 -31 -31 -31 -30 -30 -31 -30 -31 -31 -32 -32
-37 -36 -36 -36 -36 -36 -35 -35 -35 -35 -35 -35 -35 -34 -34 -34 -35 -35 -34 -34 -34 -34 -34 -34 -34 -34 -34 -34 -34 -34 -34 -33 -33 -33 -33 -32 -32 -32 -32 -32 -32 -32 -32 -32 -32 -31 -31 -31 -31 -31 -31 -30 -30 -31 -31 -31 -31 -31 -31 -31 -31 -32 -32
-37 -36 -36 -36 -36 -36 -35 -35 -35 -35 -35 -35 -35 -34 -34 -34 -34 -34 -34 -34 -34 -34 -34 -34 -34 -34 -34 -34 -34 -34 -34 -33 -33 -33 -33 -33 -32 -32 -32 -32 -32 -32 -32 -32 -32 -31 -31 -31 -31 -31 -30 -30 -30 -31 -31 -31 -31 -31 -31 -31 -32 -32 -32
-37 -36 -36 -36 -36 -36 -35 -35 -35 -35 -35 -35 -35 -35 -34 -34 -34 -34 -34 -34 -34 -34 -34 -34 -34 -34 -34 -34 -34 -34 -34 -33 -33 -33 -33 -33 -33 -32 -32 -32 -32 -32 -32 -32 -32 -32 -31 -31 -31 -31 -30 -31 -31 -31 -31 -31 -31 -31 -31 -32 -32 -32 -32
-37 -36 -36 -36 -36 -36 -35 -35 -35 -35 -35 -35 -35 -35 -34 -34 -34 -34 -34 -34 -34 -34 -34 -34 -34 -34 -34 -34 -34 -34 -34 -33 -33 -33 -33 -33 -33 -32 -32 -32 -33 -33 -32 -32 -32 -32 -31 -31 -31 -31 -31 -31 -31 -31 -31 -31 -31 -32 -32 -32 -32 -32 -33
-37 -36 -36 -36 -36 -36 -35 -35 -35 -35 -35 -35 -35 -34 -34 -34 -34 -34 -34 -35 -35 -35 -34 -34 -34 -34 -34 -34 -34 -34 -34 -34 -33 -33 -33 -33 -33 -33 -33 -33 -33 -33 -32 -32 -32 -32 -31 -31 -31 -31 -31 -31 -31 -31 -31 -31 -32 -32 -32 -32 -33 -33 -33
-37 -36 -36 -36 -36 -36 -36 -35 -35 -35 -35 -35 -35 -34 -34 -34 -34 -35 -35 -35 -35 -35 -35 -35 -35 -35 -35 -35 -34 -34 -34 -33 -33 -33 -33 -33 -33 -33 -33 -33 -33 -32 -32 -32 -32 -31 -31 -31 -31 -31 -31 -31 -31 -31 -31 -32 -32 -32 -33 -33 -33 -33 -33
-37 -36 -36 -36 -36 -36 -36 -36 -36 -35 -35 -35 -35 -35 -35 -35 -35 -35 -35 -35 -35 -35 -35 -35 -35 -35 -35 -35 -34 -34 -34 -34 -33 -33 -33 -33 -33 -33 -33 -32 -32 -32 -32 -32 -32 -31 -31 -31 -31 -31 -32 -32 -32 -32 -32 -32 -32 -33 -33 -33 -34 -34 -34

ECMWFFLT1_500_temp_081.txt.gz
Temp
-29 -29 -29 -29 -29 -29 -29 -29 -29 -29 -29 -28 -28 -28 -28 -28 -28 -28 -28 -28 -28 -29 -29 -29 -28 -28 -28 -28 -28 -28 -28 -28 -28 -28 -28 -28 -28 -28 -28 -28 -28 -27 -27 -27 -27 -27 -27 -27 -27 -27 -27 -26 -26 -26 -26 -25 -25 -25 -25 -25 -25 -25 -25
-29 -29 -29 -29 -29 -29 -29 -29 -29 -29 -29 -29 -29 -29 -29 -29 -29 -29 -29 -29 -29 -29 -29 -29 -29 -29 -29 -29 -28 -28 -28 -28 -28 -28 -29 -29 -28 -28 -28 -28 -28 -28 -27 -27 -27 -27 -27 -27 -27 -28 -28 -28 -28 -27 -27 -26 -26 -26 -25 -25 -25 -25 -25
-30 -29 -29 -29 -29 -29 -29 -29 -29 -29 -29 -29 -29 -29 -29 -29 -29 -29 -29 -29 -29 -29 -29 -29 -29 -29 -29 -29 -29 -29 -28 -28 -28 -29 -29 -29 -29 -28 -28 -28 -28 -28 -28 -27 -27 -28 -28 -28 -28 -29 -30 -30 -30 -29 -28 -28 -27 -26 -26 -26 -26 -25 -25
-30 -30 -30 -30 -30 -30 -30 -30 -30 -30 -30 -29 -30 -29 -30 -30 -30 -30 -30 -30 -29 -29 -29 -29 -29 -29 -29 -29 -29 -29 -29 -29 -29 -29 -29 -29 -29 -29 -29 -29 -29 -28 -28 -28 -28 -28 -29 -29 -30 -31 -32 -32 -32 -31 -30 -29 -28 -28 -27 -27 -26 -26 -26
-30 -30 -30 -30 -30 -30 -30 -30 -30 -30 -30 -30 -30 -30 -30 -30 -30 -30 -30 -30 -30 -29 -29 -29 -29 -29 -29 -29 -29 -29 -29 -29 -29 -29 -29 -29 -29 -29 -29 -29 -29 -29 -29 -29 -29 -30 -31 -31 -32 -32 -33 -33 -33 -32 -31 -30 -30 -29 -28 -28 -27 -27 -27
-31 -31 -31 -31 -31 -30 -30 -30 -30 -30 -30 -30 -30 -30 -30 -30 -30 -30 -30 -30 -30 -29 -29 -29 -29 -29 -29 -29 -29 -29 -29 -29 -29 -29 -29 -30 -29 -29 -29 -30 -30 -31 -31 -31 -31 -32 -32 -33 -33 -33 -33 -33 -33 -33 -32 -31 -30 -30 -29 -28 -28 -28 -27
-31 -31 -31 -31 -31 -31 -31 -30 -30 -30 -30 -30 -30 -30 -30 -30 -30 -30 -30 -30 -30 -29 -29 -29 -29 -29 -29 -29 -29 -29 -29 -29 -29 -30 -30 -30 -30 -30 -30 -31 -32 -32 -32 -33 -33 -33 -33 -33 -33 -33 -33 -34 -33 -33 -33 -32 -31 -30 -30 -29 -29 -28 -28
-31 -31 -31 -31 -31 -31 -31 -30 -30 -30 -30 -30 -30 -30 -30 -30 -30 -30 -30 -30 -30 -30 -30 -30 -30 -30 -29 -29 -29 -29 -29 -30 -30 -30 -31 -31 -32 -31 -32 -33 -33 -34 -34 -34 -34 -34 -34 -34 -34 -34 -33 -34 -34 -33 -33 -32 -32 -31 -31 -30 -29 -29 -29
-31 -31 -31 -31 -31 -31 -31 -30 -30 -30 -30 -30 -30 -30 -30 -30 -30 -30 -30 -30 -30 -30 -30 -30 -30 -30 -30 -30 -30 -30 -30 -30 -31 -32 -32 -33 -33 -33 -33 -34 -35 -35 -35 -34 -34 -34 -34 -34 -34 -34 -33 -34 -34 -33 -33 -33 -32 -32 -31 -31 -30 -30 -30
-31 -31 -31 -31 -31 -31 -31 -31 -30 -30 -30 -30 -30 -30 -30 -30 -30 -30 -30 -30 -30 -30 -30 -30 -30 -30 -30 -30 -31 -31 -31 -32 -32 -33 -34 -35 -35 -34 -34 -35 -35 -35 -35 -35 -34 -34 -34 -34 -34 -34 -34 -34 -34 -34 -34 -33 -33 -32 -32 -32 -31 -30 -30
-31 -31 -31 -31 -31 -31 -31 -31 -31 -31 -30 -30 -30 -30 -30 -30 -30 -30 -30 -30 -30 -30 -30 -30 -31 -31 -32 -32 -32 -32 -33 -33 -34 -35 -35 -36 -35 -35 -35 -36 -36 -35 -35 -35 -35 -34 -34 -34 -34 -34 -34 -34 -34 -34 -34 -33 -33 -33 -33 -32 -32 -31 -31
-31 -31 -31 -31 -31 -31 -31 -31 -31 -31 -31 -31 -31 -31 -31 -31 -30 -30 -31 -31 -31 -31 -32 -32 -33 -33 -33 -34 -34 -34 -34 -35 -35 -36 -36 -36 -36 -35 -36 -36 -36 -36 -35 -35 -35 -34 -34 -34 -34 -34 -34 -34 -34 -34 -34 -34 -33 -33 -33 -33 -32 -32 -31
-32 -32 -32 -31 -31 -31 -31 -31 -31 -31 -31 -31 -32 -32 -32 -32 -32 -32 -32 -32 -33 -33 -33 -34 -34 -34 -35 -35 -35 -35 -36 -36 -36 -36 -37 -36 -36 -36 -36 -36 -36 -36 -35 -35 -35 -34 -34 -34 -34 -34 -34 -35 -35 -35 -34 -34 -34 -33 -33 -33 -32 -32 -32
-32 -32 -32 -32 -32 -32 -32 -32 -32 -32 -33 -33 -33 -34 -34 -34 -34 -34 -33 -34 -34 -35 -35 -35 -35 -35 -36 -36 -36 -36 -36 -37 -37 -37 -37 -37 -36 -36 -36 -36 -36 -36 -35 -35 -35 -35 -34 -34 -34 -34 -35 -35 -35 -35 -35 -34 -34 -34 -33 -33 -33 -32 -32
-33 -33 -33 -33 -33 -33 -33 -33 -34 -34 -34 -34 -35 -35 -35 -35 -35 -35 -35 -35 -36 -36 -36 -36 -36 -36 -37 -37 -37 -37 -37 -37 -37 -37 -37 -37 -37 -36 -36 -36 -36 -36 -35 -35 -35 -35 -35 -34 -34 -34 -35 -35 -35 -35 -35 -34 -34 -34 -33 -33 -33 -32 -32
-34 -34 -34 -34 -34 -34 -34 -34 -35 -35 -35 -35 -36 -36 -36 -36 -36 -36 -36 -36 -37 -37 -37 -37 -37 -37 -37 -37 -37 -37 -37 -38 -37 -37 -37 -37 -37 -36 -36 -36 -36 -36 -35 -35 -35 -35 -35 -35 -35 -35 -35 -35 -35 -35 -35 -34 -34 -33 -33 -33 -33 -33 -32
-35 -36 -36 -35 -35 -35 -35 -35 -36 -36 -36 -36 -37 -37 -37 -37 -37 -37 -37 -37 -37 -37 -37 -37 -37 -37 -37 -37 -37 -37 -38 -38 -37 -37 -37 -37 -37 -36 -36 -36 -36 -36 -36 -35 -35 -35 -35 -35 -35 -35 -35 -35 -35 -35 -35 -34 -34 -33 -33 -33 -33 -33 -32
-36 -36 -36 -36 -36 -36 -36 -36 -37 -37 -37 -37 -38 -37 -37 -37 -37 -37 -37 -37 -37 -37 -37 -37 -37 -37 -37 -37 -37 -37 -38 -38 -37 -37 -37 -37 -37 -36 -36 -36 -36 -36 -35 -35 -35 -35 -35 -35 -35 -35 -35 -35 -35 -35 -35 -34 -34 -33 -33 -33 -33 -33 -32
-37 -37 -37 -37 -37 -37 -37 -37 -37 -38 -37 -38 -38 -38 -38 -37 -37 -37 -37 -37 -37 -37 -37 -37 -37 -37 -37 -37 -38 -38 -38 -37 -37 -37 -37 -37 -36 -36 -36 -36 -36 -36 -35 -35 -35 -35 -35 -35 -35 -36 -36 -35 -35 -35 -34 -34 -33 -33 -33 -33 -33 -32 -32
-38 -38 -38 -38 -38 -38 -38 -38 -38 -38 -38 -38 -38 -38 -38 -37 -37 -37 -37 -38 -38 -37 -37 -37 -37 -38 -38 -37 -37 -37 -37 -37 -37 -37 -37 -37 -36 -36 -36 -36 -36 -36 -35 -35 -35 -35 -36 -36 -36 -36 -36 -36 -35 -35 -34 -34 -33 -33 -33 -33 -33 -32 -32
-39 -39 -39 -39 -39 -39 -39 -38 -38 -38 -38 -38 -38 -38 -38 -37 -37 -37 -38 -38 -37 -37 -37 -38 -37 -37 -37 -37 -37 -37 -37 -37 -37 -36 -36 -36 -36 -36 -36 -36 -36 -36 -35 -35 -35 -36 -36 -36 -36 -36 -36 -35 -35 -35 -34 -33 -33 -33 -33 -33 -32 -32 -32
-40 -40 -40 -39 -39 -39 -39 -39 -38 -38 -38 -39 -39 -38 -38 -37 -37 -37 -37 -37 -37 -37 -37 -37 -37 -37 -37 -37 -37 -37 -37 -37 -37 -36 -36 -36 -36 -36 -36 -36 -36 -35 -35 -35 -36 -36 -36 -36 -36 -36 -35 -35 -35 -34 -34 -33 -33 -33 -33 -33 -32 -32 -32
-41 -40 -40 -39 -39 -39 -39 -39 -38 -38 -39 -39 -38 -38 -38 -37 -37 -37 -37 -37 -37 -38 -38 -38 -37 -37 -37 -37 -37 -37 -37 -37 -36 -36 -36 -36 -36 -36 -36 -36 -35 -35 -35 -36 -36 -36 -36 -36 -35 -35 -35 -35 -34 -34 -33 -33 -33 -33 -33 -33 -32 -32 -32
-41 -41 -40 -39 -39 -40 -39 -39 -39 -39 -39 -39 -38 -38 -38 -37 -37 -37 -37 -37 -38 -38 -38 -38 -38 -37 -37 -37 -37 -37 -37 -36 -36 -36 -36 -36 -36 -36 -36 -35 -35 -35 -36 -36 -36 -35 -35 -35 -35 -35 -35 -34 -34 -33 -33 -33 -33 -33 -33 -33 -33 -32 -32
-41 -41 -40 -39 -39 -40 -40 -39 -39 -39 -39 -38 -38 -38 -38 -37 -37 -37 -37 -38 -38 -37 -37 -37 -37 -37 -37 -37 -37 -36 -36 -36 -36 -36 -36 -36 -36 -36 -35 -35 -36 -36 -35 -35 -35 -35 -35 -35 -35 -35 -34 -34 -34 -33 -33 -33 -33 -33 -33 -33 -33 -32 -32
-41 -41 -40 -40 -40 -40 -40 -39 -39 -39 -38 -38 -38 -38 -38 -37 -37 -37 -37 -37 -37 -37 -37 -37 -37 -37 -36 -36 -36 -36 -36 -36 -36 -36 -36 -36 -36 -35 -35 -35 -36 -36 -35 -35 -35 -35 -35 -35 -35 -35 -34 -34 -33 -33 -33 -33 -33 -33 -33 -33 -32 -32 -31
-42 -41 -41 -40 -40 -40 -40 -39 -39 -39 -38 -38 -38 -38 -37 -37 -37 -37 -37 -37 -37 -37 -36 -36 -36 -36 -36 -36 -36 -36 -36 -36 -36 -36 -36 -36 -36 -35 -35 -36 -36 -36 -36 -36 -35 -35 -35 -35 -35 -34 -34 -33 -33 -33 -33 -33 -33 -33 -33 -32 -32 -32 -31
-41 -41 -41 -40 -40 -40 -39 -39 -39 -39 -38 -38 -38 -38 -37 -37 -37 -37 -37 -37 -37 -36 -36 -36 -36 -36 -36 -36 -36 -36 -36 -36 -36 -36 -36 -36 -36 -36 -36 -36 -36 -36 -36 -36 -36 -35 -35 -35 -34 -34 -34 -33 -33 -33 -33 -33 -33 -33 -32 -32 -32 -31 -31
-41 -41 -41 -40 -40 -40 -40 -39 -39 -39 -38 -38 -38 -38 -37 -37 -37 -37 -37 -37 -37 -37 -36 -36 -36 -36 -36 -36 -36 -36 -36 -36 -36 -36 -36 -36 -36 -36 -36 -36 -36 -36 -36 -36 -36 -35 -35 -34 -34 -34 -34 -33 -33 -33 -33 -33 -33 -33 -32 -32 -31 -31 -31
-41 -41 -41 -40 -40 -40 -40 -39 -39 -39 -38 -38 -38 -38 -37 -37 -37 -37 -37 -37 -37 -36 -36 -36 -36 -36 -36 -36 -36 -36 -36 -37 -37 -37 -37 -37 -36 -36 -36 -36 -36 -36 -36 -36 -35 -35 -35 -35 -34 -34 -34 -33 -33 -33 -33 -33 -33 -32 -32 -32 -31 -32 -32
-41 -41 -41 -41 -40 -40 -40 -40 -39 -39 -38 -38 -38 -38 -37 -37 -37 -37 -37 -37 -37 -36 -36 -36 -36 -36 -36 -36 -36 -37 -37 -37 -37 -37 -37 -37 -36 -36 -36 -36 -36 -36 -36 -35 -35 -35 -35 -34 -34 -34 -34 -33 -33 -33 -33 -33 -33 -32 -32 -32 -32 -32 -32
-42 -41 -41 -41 -41 -40 -40 -40 -39 -39 -39 -38 -38 -38 -38 -37 -37 -37 -37 -37 -37 -37 -37 -37 -37 -37 -37 -37 -37 -37 -37 -37 -37 -37 -37 -37 -36 -36 -36 -36 -36 -36 -36 -35 -35 -35 -35 -34 -34 -34 -34 -33 -33 -33 -33 -33 -33 -32 -32 -32 -32 -32 -32
-42 -42 -42 -41 -41 -40 -40 -40 -40 -39 -39 -39 -38 -38 -38 -38 -38 -38 -37 -37 -37 -37 -37 -37 -37 -37 -37 -37 -37 -37 -37 -37 -37 -37 -37 -37 -36 -36 -36 -36 -36 -36 -36 -35 -35 -35 -34 -34 -34 -34 -34 -34 -34 -33 -33 -33 -33 -32 -32 -32 -32 -32 -32
-42 -42 -42 -41 -41 -40 -40 -40 -40 -40 -39 -39 -39 -38 -38 -38 -38 -38 -38 -38 -38 -38 -38 -38 -38 -38 -37 -37 -37 -37 -37 -37 -37 -37 -37 -36 -36 -36 -36 -36 -36 -36 -36 -35 -35 -35 -35 -35 -34 -34 -34 -34 -34 -34 -33 -33 -33 -32 -32 -32 -32 -32 -32
-43 -43 -42 -42 -41 -41 -41 -40 -40 -40 -40 -39 -39 -39 -39 -39 -39 -38 -38 -38 -38 -38 -38 -38 -38 -38 -38 -38 -37 -37 -37 -37 -37 -37 -37 -37 -37 -37 -36 -36 -36 -36 -36 -35 -35 -35 -35 -35 -35 -35 -34 -34 -34 -34 -33 -33 -33 -32 -32 -32 -32 -32 -32
-43 -43 -42 -42 -41 -41 -41 -41 -40 -40 -40 -40 -39 -39 -39 -39 -39 -39 -39 -39 -39 -38 -38 -38 -38 -38 -38 -38 -38 -37 -37 -37 -37 -37 -37 -37 -37 -37 -37 -36 -36 -36 -36 -35 -35 -35 -35 -35 -35 -35 -35 -34 -34 -34 -33 -33 -33 -33 -32 -32 -32 -32 -32

ECMWFFLT1_500_temp_084.txt.gz
Temp
-31 -31 -31 -31 -30 -30 -30 -30 -30 -30 -30 -30 -29 -29 -29 -29 -29 -29 -29 -29 -29 -29 -29 -29 -28 -28 -28 -28 -28 -28 -28 -28 -28 -28 -28 -28 -28 -28 -28 -28 -28 -28 -27 -27 -28 -28 -27 -27 -27 -27 -27 -28 -27 -27 -27 -27 -26 -26 -26 -26 -25 -25 -25
-32 -31 -31 -31 -31 -31 -31 -31 -31 -31 -31 -30 -30 -30 -30 -30 -30 -30 -29 -29 -29 -29 -29 -29 -29 -29 -29 -29 -29 -28 -28 -28 -29 -29 -29 -29 -28 -28 -28 -28 -28 -28 -28 -28 -28 -28 -28 -28 -28 -28 -28 -28 -28 -28 -27 -27 -27 -27 -26 -26 -26 -26 -26
-32 -32 -32 -32 -32 -32 -32 -31 -31 -31 -31 -31 -31 -31 -30 -30 -30 -30 -30 -30 -30 -29 -29 -29 -29 -29 -29 -29 -29 -29 -29 -29 -29 -29 -29 -29 -29 -29 -29 -29 -29 -28 -28 -28 -28 -28 -28 -28 -28 -28 -28 -28 -28 -28 -28 -28 -27 -27 -27 -27 -26 -26 -26
-33 -33 -32 -32 -32 -32 -32 -32 -32 -32 -32 -31 -31 -31 -31 -31 -31 -30 -30 -30 -30 -30 -30 -30 -29 -29 -29 -29 -29 -29 -29 -29 -29 -29 -29 -29 -29 -29 -29 -29 -29 -29 -29 -29 -29 -29 -29 -29 -28 -28 -28 -28 -28 -28 -28 -28 -28 -28 -27 -27 -27 -27 -26
-33 -33 -33 -33 -33 -32 -32 -32 -32 -32 -32 -32 -32 -32 -31 -31 -31 -31 -31 -31 -30 -30 -30 -30 -30 -30 -30 -30 -30 -29 -29 -29 -29 -29 -29 -29 -29 -29 -29 -29 -29 -29 -29 -29 -29 -29 -29 -29 -29 -29 -28 -28 -28 -28 -28 -28 -28 -28 -28 -28 -27 -27 -27
-33 -33 -33 -33 -33 -33 -33 -32 -32 -32 -32 -32 -32 -32 -32 -32 -31 -31 -31 -31 -31 -31 -31 -31 -30 -30 -30 -30 -30 -30 -30 -30 -30 -30 -30 -29 -29 -29 -29 -29 -29 -30 -30 -29 -29 -29 -29 -29 -29 -29 -29 -28 -28 -28 -28 -28 -28 -28 -28 -28 -28 -27 -27
-33 -33 -33 -33 -33 -33 -32 -32 -32 -32 -32 -32 -32 -32 -32 -32 -31 -31 -31 -31 -31 -31 -31 -31 -31 -31 -31 -31 -31 -31 -30 -30 -30 -30 -30 -30 -30 -30 -30 -30 -30 -30 -30 -30 -30 -29 -29 -29 -29 -29 -29 -29 -28 -28 -28 -28 -28 -28 -28 -28 -28 -28 -28
-33 -33 -33 -33 -33 -32 -32 -32 -32 -32 -32 -32 -32 -32 -32 -32 -31 -31 -31 -31 -31 -31 -31 -31 -31 -31 -31 -31 -31 -31 -31 -31 -31 -30 -30 -30 -30 -30 -30 -30 -30 -30 -30 -30 -30 -30 -29 -29 -29 -29 -29 -29 -29 -29 -29 -29 -29 -29 -29 -29 -28 -28 -28
-33 -33 -33 -33 -33 -32 -32 -32 -32 -32 -32 -32 -32 -32 -32 -31 -31 -31 -31 -31 -31 -31 -31 -31 -31 -31 -31 -31 -31 -31 -30 -30 -30 -30 -30 -30 -30 -30 -30 -30 -30 -30 -30 -30 -30 -30 -30 -29 -29 -29 -29 -29 -29 -29 -29 -29 -29 -29 -29 -29 -29 -29 -28
-33 -33 -33 -33 -33 -33 -32 -32 -32 -32 -32 -32 -32 -32 -31 -31 -31 -31 -31 -31 -31 -31 -31 -31 -31 -31 -31 -31 -30 -30 -30 -30 -30 -30 -30 -30 -30 -30 -30 -30 -30 -30 -30 -30 -30 -30 -30 -30 -29 -29 -29 -29 -29 -29 -29 -29 -29 -29 -29 -30 -30 -30 -29
-33 -33 -33 -33 -33 -33 -32 -32 -32 -32 -32 -32 -32 -32 -32 -31 -31 -31 -31 -31 -31 -31 -31 -30 -30 -31 -31 -31 -31 -31 -30 -30 -30 -30 -30 -30 -30 -30 -30 -30 -30 -30 -30 -30 -30 -30 -30 -30 -29 -29 -29 -30 -30 -30 -29 -29 -29 -30 -30 -30 -31 -31 -31
-33 -33 -33 -33 -33 -33 -33 -33 -33 -33 -32 -32 -32 -32 -32 -32 -31 -31 -31 -31 -31 -31 -31 -30 -30 -30 -30 -30 -31 -31 -31 -31 -31 -30 -30 -30 -30 -30 -30 -30 -30 -30 -30 -30 -30 -30 -30 -30 -30 -30 -30 -30 -30 -30 -30 -30 -31 -31 -31 -32 -32 -32 -32
-34 -34 -34 -34 -34 -33 -33 -33 -34 -34 -33 -33 -33 -33 -32 -32 -32 -32 -32 -32 -31 -31 -31 -31 -31 -31 -31 -31 -31 -31 -31 -31 -31 -31 -31 -31 -31 -31 -31 -31 -31 -31 -31 -31 -31 -31 -31 -31 -31 -31 -31 -32 -32 -32 -32 -32 -32 -32 -32 -33 -34 -34 -34
-35 -35 -35 -35 -35 -35 -34 -35 -35 -35 -35 -34 -34 -34 -34 -34 -34 -33 -33 -33 -33 -33 -33 -32 -32 -32 -32 -32 -32 -33 -33 -33 -33 -33 -33 -33 -33 -33 -33 -33 -33 -33 -33 -32 -32 -32 -32 -32 -32 -33 -33 -34 -34 -34 -33 -33 -33 -33 -34 -34 -35 -35 -34
-36 -36 -36 -36 -36 -36 -36 -36 -36 -36 -36 -35 -35 -35 -35 -35 -35 -35 -35 -35 -34 -34 -34 -34 -34 -34 -34 -34 -34 -34 -34 -34 -35 -35 -34 -34 -34 -34 -35 -35 -35 -35 -35 -34 -34 -34 -34 -34 -34 -35 -35 -35 -35 -35 -34 -34 -34 -35 -35 -35 -35 -35 -35
-37 -37 -37 -37 -38 -37 -37 -37 -37 -37 -36 -36 -37 -37 -37 -36 -36 -36 -36 -36 -35 -35 -35 -35 -35 -35 -35 -35 -35 -36 -36 -36 -36 -36 -36 -36 -36 -36 -36 -36 -36 -36 -36 -36 -35 -35 -35 -36 -36 -36 -36 -36 -36 -35 -35 -35 -35 -35 -35 -35 -35 -35 -34
-38 -38 -38 -38 -38 -38 -38 -38 -38 -37 -37 -37 -38 -38 -37 -37 -37 -37 -36 -36 -37 -37 -37 -37 -37 -37 -37 -37 -37 -37 -37 -38 -38 -37 -37 -37 -37 -38 -37 -37 -37 -37 -37 -37 -37 -36 -36 -37 -37 -37 -37 -37 -36 -36 -36 -35 -35 -35 -35 -35 -35 -35 -35
-39 -39 -39 -39 -39 -39 -39 -38 -38 -38 -38 -38 -38 -38 -38 -38 -37 -37 -37 -37 -37 -38 -37 -37 -38 -38 -37 -37 -37 -38 -38 -38 -38 -38 -38 -38 -38 -38 -38 -38 -38 -38 -38 -38 -37 -37 -37 -37 -37 -37 -37 -37 -36 -36 -36 -36 -36 -36 -36 -35 -35 -35 -35
-40 -40 -40 -41 -40 -40 -39 -39 -39 -39 -39 -39 -39 -39 -39 -38 -38 -38 -38 -38 -38 -38 -38 -38 -38 -38 -38 -38 -38 -38 -39 -39 -39 -39 -39 -39 -39 -38 -38 -38 -38 -38 -38 -38 -38 -37 -37 -37 -37 -37 -37 -36 -36 -36 -36 -36 -36 -36 -36 -35 -35 -35 -35
-41 -41 -41 -42 -41 -41 -40 -40 -40 -40 -40 -39 -39 -39 -39 -39 -39 -38 -38 -38 -39 -39 -39 -39 -38 -39 -39 -39 -39 -39 -39 -39 -39 -39 -39 -38 -39 -38 -38 -38 -38 -38 -38 -38 -38 -38 -37 -37 -37 -37 -37 -36 -36 -36 -36 -36 -36 -36 -36 -35 -35 -35 -35
-42 -42 -42 -42 -42 -41 -41 -41 -40 -40 -40 -40 -39 -39 -40 -39 -39 -39 -38 -39 -39 -39 -39 -39 -39 -39 -39 -39 -39 -39 -39 -39 -39 -39 -38 -38 -38 -39 -38 -38 -38 -38 -38 -38 -38 -38 -37 -37 -37 -37 -37 -36 -36 -36 -36 -36 -36 -36 -36 -35 -35 -35 -35
-43 -43 -43 -43 -43 -42 -41 -41 -41 -40 -40 -40 -40 -40 -40 -40 -39 -39 -39 -39 -39 -39 -39 -39 -39 -38 -39 -39 -39 -39 -39 -39 -39 -38 -38 -38 -38 -38 -38 -38 -38 -38 -38 -38 -38 -37 -37 -37 -37 -37 -37 -37 -36 -36 -36 -36 -36 -36 -35 -35 -35 -35 -35
-43 -43 -43 -43 -43 -43 -42 -41 -41 -41 -41 -40 -40 -40 -40 -40 -39 -39 -39 -39 -39 -39 -39 -38 -38 -38 -38 -38 -38 -39 -39 -38 -38 -38 -38 -38 -38 -38 -38 -38 -38 -38 -38 -37 -37 -37 -37 -37 -36 -36 -36 -36 -36 -36 -36 -36 -36 -36 -35 -35 -35 -35 -35
-44 -44 -44 -43 -43 -43 -42 -41 -41 -41 -41 -40 -40 -40 -40 -40 -39 -39 -39 -39 -39 -39 -38 -38 -38 -38 -38 -38 -38 -38 -38 -38 -38 -38 -38 -38 -38 -38 -38 -38 -37 -37 -37 -37 -37 -37 -37 -36 -36 -36 -36 -36 -36 -36 -36 -36 -36 -36 -35 -35 -35 -35 -35
-44 -44 -44 -44 -43 -43 -42 -42 -41 -41 -41 -40 -40 -40 -40 -40 -39 -39 -39 -39 -39 -38 -38 -38 -38 -38 -38 -38 -37 -38 -38 -38 -37 -37 -37 -38 -38 -37 -37 -37 -37 -37 -37 -37 -37 -37 -37 -36 -36 -36 -36 -36 -36 -36 -36 -36 -36 -36 -36 -36 -36 -35 -35
-44 -44 -44 -44 -43 -43 -43 -42 -41 -41 -41 -41 -41 -41 -40 -40 -39 -39 -39 -39 -38 -38 -38 -38 -38 -38 -37 -37 -37 -37 -37 -37 -37 -37 -37 -37 -37 -37 -37 -37 -37 -37 -37 -37 -37 -37 -37 -36 -36 -36 -36 -36 -36 -36 -36 -36 -36 -36 -36 -36 -36 -36 -35
-44 -44 -44 -44 -44 -43 -43 -42 -42 -42 -42 -41 -41 -41 -40 -40 -39 -39 -39 -38 -38 -38 -38 -38 -38 -38 -37 -37 -37 -37 -37 -37 -37 -37 -37 -37 -37 -37 -37 -37 -37 -37 -37 -37 -37 -36 -36 -36 -36 -36 -36 -36 -36 -36 -36 -36 -36 -36 -36 -36 -36 -36 -35
-44 -44 -44 -44 -44 -44 -43 -43 -42 -42 -42 -41 -41 -41 -40 -39 -39 -39 -39 -39 -38 -38 -38 -38 -38 -38 -38 -37 -37 -37 -37 -37 -37 -37 -37 -37 -37 -37 -37 -37 -37 -37 -36 -36 -36 -36 -36 -36 -36 -36 -36 -36 -36 -36 -36 -36 -36 -36 -36 -36 -36 -35 -35
-44 -44 -44 -44 -43 -43 -44 -43 -43 -42 -42 -41 -41 -40 -40 -39 -39 -39 -39 -39 -38 -38 -38 -38 -38 -38 -38 -38 -37 -37 -37 -37 -37 -37 -37 -38 -37 -37 -37 -37 -37 -37 -37 -37 -37 -36 -36 -36 -36 -36 -36 -36 -36 -36 -36 -36 -36 -36 -36 -35 -35 -35 -34
-44 -44 -44 -44 -43 -43 -43 -43 -43 -42 -42 -41 -40 -40 -40 -40 -39 -39 -39 -39 -38 -38 -38 -38 -38 -38 -38 -38 -38 -37 -37 -37 -37 -37 -38 -37 -37 -37 -37 -37 -37 -37 -37 -37 -37 -37 -36 -36 -36 -36 -36 -36 -37 -36 -36 -36 -36 -36 -35 -35 -35 -34 -34
-44 -44 -44 -44 -44 -43 -42 -42 -42 -42 -41 -41 -40 -40 -40 -40 -40 -39 -39 -39 -38 -38 -38 -38 -38 -38 -38 -38 -38 -38 -37 -37 -37 -37 -37 -37 -37 -37 -37 -37 -37 -37 -37 -37 -37 -37 -37 -37 -37 -37 -37 -37 -37 -36 -36 -36 -36 -35 -35 -35 -34 -34 -34
-44 -44 -44 -44 -44 -44 -43 -42 -42 -42 -41 -41 -40 -40 -41 -41 -40 -39 -39 -39 -39 -39 -39 -38 -38 -38 -38 -38 -38 -37 -37 -37 -37 -37 -37 -37 -37 -37 -37 -37 -37 -37 -37 -37 -37 -37 -37 -37 -37 -37 -37 -37 -36 -36 -36 -36 -35 -35 -35 -34 -34 -34 -33
-44 -44 -45 -44 -44 -44 -44 -43 -43 -43 -42 -41 -40 -41 -41 -41 -40 -40 -39 -39 -39 -39 -39 -38 -38 -38 -38 -38 -38 -37 -37 -37 -37 -37 -37 -37 -37 -37 -37 -37 -37 -37 -37 -37 -37 -37 -37 -37 -37 -37 -37 -36 -36 -36 -36 -35 -35 -35 -35 -34 -34 -33 -33
-45 -44 -45 -44 -44 -44 -43 -43 -43 -43 -42 -41 -40 -41 -41 -41 -41 -40 -40 -39 -39 -39 -39 -38 -38 -38 -37 -37 -37 -37 -37 -37 -37 -38 -37 -37 -37 -37 -37 -37 -37 -37 -37 -37 -37 -37 -37 -37 -37 -37 -36 -36 -36 -36 -35 -35 -35 -35 -34 -34 -33 -33 -33
-45 -44 -45 -45 -44 -44 -43 -43 -43 -43 -42 -41 -41 -41 -40 -41 -41 -41 -40 -39 -39 -39 -39 -38 -38 -38 -38 -37 -37 -37 -37 -37 -38 -38 -38 -38 -38 -38 -38 -38 -37 -37 -37 -37 -37 -37 -37 -37 -37 -36 -36 -36 -36 -36 -35 -35 -35 -34 -34 -34 -34 -34 -34
-45 -45 -45 -45 -44 -44 -44 -43 -43 -43 -43 -42 -41 -41 -40 -41 -41 -41 -40 -39 -39 -39 -39 -39 -39 -39 -38 -38 -38 -38 -38 -38 -38 -38 -38 -38 -38 -38 -38 -38 -37 -37 -37 -37 -37 -37 -37 -37 -37 -36 -36 -36 -36 -36 -35 -35 -35 -34 -34 -34 -34 -34 -34

ECMWFFLT1_500_temp_087.txt.gz
Temp
-32 -32 -32 -32 -32 -32 -32 -32 -32 -32 -32 -32 -32 -32 -32 -32 -32 -31 -31 -31 -31 -31 -31 -30 -30 -30 -29 -29 -29 -28 -28 -28 -28 -28 -27 -27 -27 -26 -26 -26 -25 -24 -23 -23 -24 -25 -25 -25 -26 -26 -25 -25 -25 -25 -25 -25 -25 -25 -24 -24 -24 -23 -23
-33 -33 -32 -32 -32 -33 -33 -33 -33 -33 -33 -33 -32 -32 -32 -32 -32 -32 -32 -32 -32 -32 -31 -31 -31 -31 -30 -30 -30 -29 -29 -29 -29 -29 -29 -29 -28 -28 -28 -27 -27 -26 -24 -23 -24 -25 -25 -26 -26 -26 -26 -26 -26 -26 -26 -26 -26 -25 -25 -25 -24 -24 -24
-33 -33 -33 -33 -33 -33 -33 -33 -33 -33 -33 -33 -33 -33 -33 -33 -32 -32 -32 -32 -32 -32 -32 -32 -31 -31 -31 -31 -31 -30 -30 -30 -30 -30 -29 -29 -29 -29 -29 -29 -28 -28 -27 -25 -25 -26 -26 -26 -27 -27 -27 -27 -27 -27 -27 -27 -26 -26 -26 -26 -25 -25 -25
-33 -33 -33 -33 -33 -33 -33 -33 -33 -33 -33 -33 -33 -33 -33 -33 -33 -33 -32 -32 -32 -32 -32 -32 -32 -32 -32 -31 -31 -31 -31 -31 -30 -30 -30 -30 -30 -30 -29 -29 -29 -29 -28 -27 -27 -27 -27 -27 -27 -27 -27 -27 -27 -27 -27 -27 -27 -27 -27 -26 -26 -26 -26
-34 -34 -33 -33 -33 -33 -33 -33 -33 -33 -33 -33 -33 -33 -33 -33 -33 -33 -33 -32 -32 -32 -32 -32 -32 -32 -32 -32 -32 -31 -31 -31 -31 -31 -31 -30 -30 -30 -30 -30 -30 -30 -29 -29 -28 -28 -28 -28 -27 -27 -27 -27 -27 -28 -28 -28 -28 -27 -27 -27 -27 -27 -26
-34 -34 -34 -34 -34 -33 -33 -33 -33 -33 -33 -33 -33 -33 -33 -33 -33 -33 -33 -33 -32 -32 -32 -32 -32 -32 -32 -32 -32 -32 -32 -32 -31 -31 -31 -31 -31 -30 -30 -30 -30 -30 -30 -29 -29 -29 -29 -29 -28 -28 -28 -28 -28 -28 -28 -28 -28 -28 -28 -27 -27 -27 -27
-34 -34 -34 -34 -34 -34 -34 -34 -33 -33 -33 -33 -33 -33 -33 -33 -33 -33 -33 -33 -33 -33 -32 -32 -32 -32 -32 -32 -32 -32 -32 -32 -32 -32 -31 -31 -31 -31 -31 -30 -30 -30 -30 -30 -29 -29 -29 -29 -29 -29 -28 -28 -28 -28 -28 -28 -28 -28 -28 -28 -28 -28 -28
-34 -34 -34 -34 -34 -34 -34 -34 -34 -34 -34 -33 -33 -33 -33 -33 -33 -33 -33 -33 -33 -33 -33 -32 -32 -32 -32 -32 -32 -32 -32 -32 -32 -32 -32 -31 -31 -31 -31 -31 -31 -30 -30 -30 -30 -29 -29 -29 -29 -29 -29 -29 -29 -28 -28 -28 -28 -28 -28 -28 -28 -28 -28
-34 -34 -34 -34 -34 -34 -34 -34 -34 -34 -34 -34 -33 -33 -33 -33 -33 -33 -33 -33 -33 -33 -33 -32 -32 -32 -32 -32 -32 -32 -32 -32 -32 -32 -32 -32 -32 -31 -31 -31 -31 -31 -31 -30 -30 -30 -30 -29 -29 -29 -29 -29 -29 -29 -29 -29 -29 -29 -29 -29 -29 -29 -28
-35 -35 -34 -34 -34 -34 -34 -34 -34 -34 -34 -34 -34 -34 -33 -33 -33 -33 -33 -33 -33 -33 -32 -32 -32 -32 -32 -32 -32 -32 -32 -32 -32 -32 -32 -32 -31 -31 -31 -31 -31 -31 -31 -31 -31 -30 -30 -30 -30 -30 -30 -29 -29 -29 -29 -29 -29 -29 -29 -29 -29 -29 -29
-36 -36 -35 -35 -35 -35 -35 -35 -35 -35 -35 -35 -35 -34 -34 -33 -33 -33 -33 -33 -33 -32 -32 -32 -32 -32 -32 -32 -32 -32 -32 -32 -32 -32 -32 -31 -31 -31 -31 -31 -31 -31 -31 -31 -31 -31 -31 -30 -30 -30 -30 -30 -30 -30 -30 -30 -29 -29 -29 -29 -29 -29 -29
-37 -37 -37 -37 -36 -36 -36 -36 -36 -36 -36 -36 -36 -35 -35 -34 -34 -33 -33 -33 -33 -33 -32 -32 -32 -32 -32 -32 -32 -32 -32 -32 -32 -32 -31 -31 -31 -31 -31 -31 -31 -31 -31 -31 -31 -31 -31 -31 -30 -30 -30 -30 -30 -30 -30 -30 -30 -30 -30 -30 -29 -29 -29
-38 -38 -38 -38 -38 -38 -37 -38 -38 -38 -37 -37 -37 -37 -36 -36 -35 -34 -34 -34 -33 -33 -33 -33 -33 -33 -32 -32 -32 -32 -32 -32 -32 -31 -31 -31 -31 -31 -31 -31 -31 -31 -31 -31 -31 -31 -31 -31 -31 -30 -30 -30 -30 -30 -30 -30 -30 -30 -30 -30 -30 -29 -29
-39 -39 -39 -39 -39 -39 -39 -39 -39 -39 -39 -38 -38 -38 -37 -37 -36 -36 -35 -35 -35 -34 -34 -34 -34 -34 -33 -33 -33 -33 -32 -32 -32 -32 -32 -31 -31 -31 -31 -31 -31 -31 -31 -31 -31 -31 -31 -31 -31 -30 -30 -30 -30 -30 -30 -30 -30 -30 -30 -30 -30 -30 -30
-40 -40 -40 -41 -41 -40 -40 -41 -40 -40 -40 -39 -39 -39 -38 -38 -38 -37 -37 -36 -36 -36 -36 -36 -35 -35 -35 -34 -34 -34 -34 -33 -33 -33 -33 -32 -32 -32 -31 -31 -31 -31 -31 -31 -31 -31 -31 -31 -31 -30 -30 -31 -31 -31 -30 -30 -30 -30 -30 -30 -30 -30 -30
-41 -41 -42 -42 -42 -42 -42 -42 -42 -41 -41 -40 -40 -40 -39 -39 -39 -38 -38 -37 -37 -37 -37 -37 -36 -36 -36 -35 -35 -35 -35 -35 -34 -34 -34 -33 -33 -33 -33 -32 -32 -32 -32 -32 -31 -31 -31 -31 -31 -31 -31 -31 -31 -31 -31 -31 -31 -30 -30 -30 -30 -30 -30
-43 -43 -43 -43 -43 -43 -43 -43 -43 -42 -42 -42 -41 -41 -40 -40 -39 -39 -39 -39 -39 -38 -38 -38 -37 -37 -37 -36 -36 -36 -36 -36 -35 -35 -34 -34 -34 -34 -34 -34 -34 -34 -33 -33 -33 -33 -32 -32 -32 -31 -31 -31 -31 -31 -31 -31 -31 -30 -30 -30 -30 -30 -30
-43 -44 -44 -44 -44 -44 -43 -43 -43 -43 -43 -42 -42 -42 -41 -41 -40 -40 -40 -39 -39 -39 -39 -38 -38 -38 -37 -37 -37 -37 -37 -37 -36 -36 -35 -35 -35 -35 -35 -35 -35 -35 -35 -35 -35 -34 -34 -33 -33 -33 -33 -33 -32 -32 -32 -32 -31 -31 -30 -30 -30 -30 -30
-44 -44 -45 -45 -44 -44 -44 -43 -43 -43 -43 -42 -42 -42 -42 -41 -41 -40 -40 -40 -39 -39 -40 -39 -39 -39 -38 -38 -38 -38 -38 -38 -37 -37 -37 -36 -36 -36 -36 -36 -37 -37 -36 -36 -36 -36 -35 -35 -34 -34 -34 -34 -34 -33 -33 -32 -32 -31 -31 -31 -31 -31 -31
-44 -45 -45 -45 -45 -45 -44 -43 -43 -43 -43 -43 -42 -43 -42 -42 -41 -40 -40 -40 -40 -40 -40 -40 -39 -39 -39 -38 -38 -38 -38 -38 -38 -38 -37 -37 -37 -37 -37 -38 -38 -38 -37 -37 -37 -37 -37 -36 -36 -36 -36 -35 -35 -35 -34 -34 -33 -33 -33 -33 -33 -33 -33
-45 -45 -45 -45 -45 -45 -44 -44 -43 -43 -43 -43 -43 -43 -42 -42 -41 -41 -40 -40 -40 -40 -40 -40 -39 -39 -39 -39 -39 -39 -38 -38 -38 -38 -38 -38 -38 -38 -38 -38 -38 -38 -38 -38 -38 -38 -37 -37 -37 -37 -37 -37 -37 -36 -36 -35 -35 -35 -35 -35 -35 -35 -35
-45 -45 -45 -46 -45 -45 -44 -44 -44 -43 -43 -43 -43 -43 -43 -42 -42 -41 -40 -40 -40 -40 -40 -39 -39 -39 -39 -39 -39 -39 -39 -39 -38 -38 -38 -38 -38 -39 -39 -39 -38 -38 -38 -38 -38 -38 -38 -38 -38 -38 -38 -38 -37 -37 -37 -37 -36 -37 -37 -37 -36 -36 -36
-45 -45 -45 -46 -46 -45 -44 -44 -44 -43 -43 -43 -43 -43 -43 -42 -42 -41 -41 -40 -40 -40 -40 -40 -39 -39 -39 -39 -39 -39 -39 -38 -38 -38 -38 -39 -39 -39 -39 -39 -39 -39 -39 -39 -39 -39 -39 -38 -38 -38 -38 -38 -38 -38 -38 -38 -38 -38 -38 -38 -37 -37 -37
-45 -45 -45 -46 -45 -45 -45 -44 -44 -44 -43 -43 -43 -43 -42 -42 -42 -42 -41 -41 -40 -40 -40 -40 -39 -39 -39 -39 -39 -39 -39 -38 -38 -38 -38 -39 -39 -39 -39 -39 -39 -39 -39 -39 -39 -39 -39 -39 -39 -39 -39 -39 -39 -38 -38 -38 -38 -38 -38 -38 -38 -37 -37
-45 -45 -46 -46 -45 -45 -45 -44 -44 -44 -44 -43 -43 -43 -42 -42 -42 -42 -42 -41 -41 -40 -40 -40 -39 -39 -39 -39 -39 -39 -39 -39 -38 -38 -39 -39 -39 -39 -39 -39 -39 -39 -39 -39 -39 -39 -39 -39 -39 -39 -39 -39 -39 -39 -38 -38 -38 -38 -38 -38 -37 -37 -37
-45 -45 -46 -46 -45 -45 -45 -44 -44 -44 -44 -44 -43 -43 -43 -43 -43 -43 -42 -41 -41 -40 -40 -39 -39 -39 -39 -39 -39 -39 -39 -39 -39 -39 -39 -39 -39 -39 -39 -39 -39 -39 -39 -39 -39 -39 -39 -39 -39 -39 -39 -39 -38 -38 -38 -38 -38 -38 -37 -37 -37 -37 -37
-45 -45 -45 -46 -45 -45 -45 -45 -44 -44 -44 -44 -43 -43 -43 -44 -44 -43 -42 -42 -41 -40 -40 -39 -39 -39 -39 -39 -39 -39 -39 -39 -39 -39 -39 -39 -39 -39 -39 -39 -39 -39 -39 -39 -39 -39 -39 -38 -38 -38 -38 -38 -38 -38 -38 -38 -37 -37 -37 -37 -37 -37 -37
-44 -45 -45 -45 -46 -46 -46 -45 -44 -44 -44 -44 -43 -43 -44 -45 -44 -43 -42 -41 -40 -40 -40 -40 -39 -39 -39 -39 -39 -39 -39 -39 -39 -39 -39 -39 -39 -39 -39 -39 -38 -38 -38 -38 -38 -38 -38 -38 -38 -38 -38 -38 -38 -37 -37 -37 -37 -37 -37 -37 -37 -37 -37
-44 -44 -45 -45 -45 -45 -46 -46 -45 -44 -44 -44 -43 -44 -44 -45 -44 -42 -41 -41 -40 -40 -40 -40 -39 -39 -39 -39 -39 -39 -39 -39 -39 -39 -39 -39 -39 -39 -39 -39 -39 -39 -39 -39 -38 -38 -38 -38 -38 -38 -38 -38 -37 -37 -37 -37 -37 -37 -37 -37 -37 -37 -37
-44 -44 -44 -45 -45 -45 -45 -45 -45 -45 -44 -44 -44 -44 -44 -43 -42 -41 -41 -40 -40 -40 -40 -40 -39 -39 -39 -39 -39 -39 -39 -39 -39 -39 -38 -38 -38 -39 -39 -39 -39 -39 -39 -39 -38 -38 -38 -38 -38 -38 -38 -38 -37 -37 -37 -37 -37 -37 -37 -37 -37 -37 -36
-45 -44 -44 -44 -45 -45 -45 -44 -44 -45 -45 -44 -44 -44 -43 -42 -41 -41 -41 -40 -40 -40 -40 -39 -39 -39 -39 -39 -39 -39 -39 -39 -39 -39 -39 -38 -38 -38 -38 -38 -38 -38 -38 -38 -38 -38 -38 -38 -38 -38 -37 -37 -37 -37 -37 -37 -37 -37 -37 -37 -37 -37 -37
-45 -45 -45 -44 -44 -44 -45 -44 -44 -44 -44 -44 -43 -43 -43 -41 -41 -41 -41 -41 -40 -40 -40 -39 -39 -39 -39 -38 -38 -38 -38 -38 -39 -39 -38 -38 -38 -38 -38 -38 -38 -38 -38 -38 -38 -38 -38 -38 -37 -37 -37 -37 -37 -37 -37 -37 -37 -37 -37 -37 -37 -37 -37
-45 -45 -45 -45 -44 -44 -44 -44 -44 -44 -43 -43 -43 -43 -43 -42 -41 -41 -41 -40 -40 -40 -40 -39 -39 -39 -39 -39 -39 -39 -38 -38 -38 -38 -38 -38 -38 -38 -38 -38 -38 -38 -38 -38 -37 -37 -37 -37 -37 -37 -37 -37 -37 -37 -37 -37 -37 -37 -37 -37 -37 -37 -37
-46 -45 -45 -45 -45 -45 -44 -44 -44 -44 -44 -43 -43 -43 -43 -42 -41 -41 -41 -41 -40 -40 -40 -40 -39 -39 -39 -39 -39 -39 -39 -39 -38 -38 -38 -38 -38 -38 -38 -38 -38 -38 -37 -37 -37 -37 -37 -37 -37 -37 -37 -37 -37 -37 -37 -37 -37 -37 -37 -37 -37 -37 -37
-46 -45 -45 -45 -45 -45 -45 -44 -44 -44 -44 -43 -43 -43 -43 -42 -41 -41 -41 -41 -40 -40 -40 -40 -40 -40 -39 -39 -39 -39 -39 -39 -39 -39 -38 -38 -38 -38 -38 -38 -38 -38 -38 -38 -37 -37 -37 -37 -37 -37 -37 -37 -37 -37 -37 -37 -37 -37 -37 -37 -37 -37 -36
-45 -46 -45 -44 -44 -45 -45 -44 -44 -44 -43 -43 -43 -43 -42 -42 -42 -41 -41 -41 -41 -40 -40 -40 -40 -40 -40 -39 -39 -39 -39 -39 -39 -39 -39 -39 -38 -38 -38 -38 -38 -38 -38 -38 -38 -38 -38 -38 -38 -38 -37 -37 -37 -37 -37 -37 -37 -37 -37 -37 -36 -36 -36

ECMWFFLT1_500_temp_090.txt.gz
Temp
-34 -34 -34 -34 -34 -33 -33 -33 -33 -33 -33 -33 -33 -33 -33 -33 -33 -33 -32 -32 -32 -32 -32 -32 -31 -31 -31 -31 -30 -30 -30 -29 -29 -28 -28 -27 -27 -26 -26 -25 -25 -24 -23 -23 -23 -23 -23 -23 -23 -23 -23 -23 -23 -23 -23 -23 -23 -23 -22 -22 -21 -21 -21
-34 -34 -34 -34 -34 -34 -34 -34 -34 -34 -33 -33 -33 -33 -33 -33 -33 -33 -33 -33 -33 -33 -32 -32 -32 -32 -32 -32 -31 -31 -31 -31 -30 -30 -29 -29 -29 -28 -27 -27 -26 -25 -24 -23 -23 -24 -23 -23 -24 -23 -23 -23 -23 -23 -24 -24 -24 -24 -23 -23 -22 -22 -21
-34 -34 -34 -34 -34 -34 -34 -34 -34 -34 -34 -34 -34 -34 -33 -33 -33 -33 -33 -33 -33 -33 -33 -33 -33 -33 -32 -32 -32 -32 -32 -32 -31 -31 -31 -30 -30 -30 -29 -28 -27 -26 -25 -24 -24 -24 -24 -24 -24 -24 -23 -23 -23 -23 -23 -24 -24 -24 -24 -24 -24 -23 -22
-35 -35 -34 -34 -34 -34 -34 -34 -34 -34 -34 -34 -34 -34 -34 -34 -34 -33 -33 -33 -33 -33 -33 -33 -33 -33 -33 -33 -33 -32 -32 -32 -32 -32 -32 -31 -31 -31 -30 -30 -29 -28 -27 -25 -25 -25 -25 -24 -24 -24 -24 -24 -24 -24 -23 -24 -24 -24 -25 -25 -25 -24 -24
-35 -35 -35 -35 -35 -35 -34 -34 -34 -34 -34 -34 -34 -34 -34 -34 -34 -34 -34 -33 -33 -33 -33 -33 -33 -33 -33 -33 -33 -33 -33 -33 -33 -32 -32 -32 -32 -32 -31 -31 -31 -30 -29 -27 -26 -26 -26 -26 -25 -25 -24 -24 -24 -24 -24 -24 -24 -24 -24 -25 -25 -25 -25
-36 -36 -36 -36 -36 -35 -35 -35 -35 -35 -35 -34 -34 -34 -34 -34 -34 -34 -34 -34 -34 -33 -33 -33 -33 -33 -33 -33 -33 -33 -33 -33 -33 -33 -33 -32 -32 -32 -32 -32 -31 -31 -30 -29 -28 -27 -27 -27 -27 -26 -26 -25 -25 -25 -24 -24 -24 -24 -24 -25 -25 -25 -26
-37 -37 -37 -37 -36 -36 -36 -36 -36 -36 -35 -35 -35 -35 -35 -34 -34 -34 -34 -34 -34 -34 -34 -33 -33 -33 -33 -33 -33 -33 -33 -33 -33 -33 -33 -32 -32 -32 -32 -32 -32 -32 -31 -31 -30 -29 -28 -27 -27 -27 -27 -26 -26 -26 -25 -25 -25 -24 -24 -25 -25 -25 -26
-37 -37 -37 -37 -37 -37 -37 -37 -36 -36 -36 -36 -36 -36 -35 -35 -35 -35 -34 -34 -34 -34 -34 -34 -34 -33 -33 -33 -33 -33 -33 -33 -33 -33 -32 -32 -32 -32 -32 -32 -32 -32 -32 -31 -31 -30 -30 -29 -28 -28 -28 -28 -27 -27 -27 -26 -26 -25 -25 -25 -25 -25 -26
-38 -38 -37 -37 -37 -37 -37 -37 -37 -37 -37 -37 -37 -36 -36 -36 -36 -35 -35 -35 -34 -34 -34 -34 -34 -34 -34 -34 -33 -33 -33 -33 -33 -33 -33 -33 -32 -32 -32 -32 -32 -32 -32 -32 -31 -31 -31 -30 -30 -29 -29 -29 -28 -28 -28 -27 -27 -27 -26 -26 -26 -26 -26
-38 -38 -38 -38 -38 -38 -38 -38 -38 -38 -38 -38 -37 -37 -37 -37 -36 -36 -36 -35 -35 -35 -35 -34 -34 -34 -34 -34 -34 -34 -33 -33 -33 -33 -33 -33 -33 -32 -32 -32 -32 -32 -32 -32 -32 -31 -31 -31 -31 -30 -30 -30 -29 -29 -29 -28 -28 -28 -28 -27 -27 -27 -27
-39 -39 -39 -39 -38 -38 -38 -38 -38 -38 -38 -38 -38 -38 -38 -37 -37 -37 -37 -36 -36 -36 -36 -35 -35 -35 -34 -34 -34 -34 -34 -33 -33 -33 -33 -33 -33 -33 -33 -32 -32 -32 -32 -32 -32 -31 -31 -31 -31 -31 -31 -31 -30 -30 -30 -29 -29 -29 -29 -28 -28 -28 -28
-39 -39 -39 -39 -39 -39 -39 -39 -39 -39 -39 -39 -39 -39 -38 -38 -37 -37 -37 -37 -37 -37 -37 -36 -36 -36 -35 -35 -35 -34 -34 -34 -34 -33 -33 -33 -33 -33 -33 -32 -32 -32 -32 -32 -32 -32 -31 -31 -31 -31 -31 -31 -31 -31 -31 -30 -30 -29 -29 -29 -29 -28 -29
-40 -40 -40 -40 -40 -40 -40 -40 -40 -40 -40 -40 -40 -40 -40 -39 -38 -38 -38 -38 -38 -38 -38 -37 -37 -37 -37 -36 -36 -36 -35 -35 -34 -34 -34 -33 -33 -33 -33 -33 -32 -32 -32 -32 -32 -32 -32 -31 -31 -31 -31 -31 -31 -31 -31 -31 -31 -30 -30 -30 -30 -29 -29
-40 -41 -41 -41 -41 -41 -41 -42 -42 -42 -42 -42 -42 -42 -41 -41 -40 -40 -40 -40 -39 -39 -39 -38 -38 -38 -37 -37 -37 -37 -36 -36 -35 -35 -34 -34 -33 -33 -33 -32 -32 -32 -32 -32 -32 -32 -32 -32 -32 -31 -31 -31 -31 -31 -31 -31 -31 -31 -30 -30 -30 -30 -30
-41 -41 -42 -42 -42 -42 -43 -43 -43 -43 -43 -43 -43 -43 -43 -42 -42 -42 -41 -41 -41 -41 -40 -40 -40 -39 -38 -38 -38 -37 -37 -37 -36 -36 -35 -34 -34 -33 -33 -33 -32 -32 -32 -32 -32 -32 -32 -32 -32 -32 -32 -31 -32 -32 -31 -31 -31 -31 -31 -31 -31 -30 -30
-42 -42 -43 -43 -43 -43 -43 -44 -44 -43 -43 -43 -43 -44 -43 -43 -43 -43 -42 -42 -42 -42 -42 -41 -41 -40 -39 -39 -38 -38 -38 -37 -37 -36 -35 -35 -35 -34 -34 -34 -33 -33 -33 -33 -32 -32 -32 -32 -32 -32 -32 -32 -32 -32 -32 -32 -32 -32 -31 -31 -31 -31 -30
-43 -43 -44 -44 -44 -44 -44 -44 -44 -44 -44 -44 -44 -44 -44 -44 -43 -43 -43 -43 -43 -43 -43 -42 -42 -41 -41 -40 -39 -39 -38 -38 -38 -37 -36 -35 -35 -35 -35 -35 -34 -34 -34 -33 -33 -32 -32 -32 -32 -32 -32 -32 -32 -32 -32 -32 -32 -32 -31 -31 -31 -31 -31
-43 -44 -44 -44 -44 -44 -44 -44 -44 -44 -44 -45 -45 -45 -44 -44 -44 -44 -44 -44 -44 -43 -43 -43 -43 -42 -41 -41 -40 -39 -39 -39 -38 -38 -37 -36 -36 -36 -36 -36 -35 -35 -35 -34 -34 -33 -33 -32 -32 -32 -32 -31 -31 -32 -32 -31 -31 -32 -31 -31 -31 -31 -31
-43 -44 -45 -45 -45 -45 -44 -44 -44 -44 -44 -45 -45 -45 -45 -44 -44 -44 -44 -44 -43 -43 -43 -43 -43 -42 -42 -41 -40 -40 -39 -39 -39 -38 -38 -37 -37 -37 -36 -37 -37 -36 -36 -36 -35 -35 -34 -33 -33 -33 -32 -32 -32 -32 -32 -31 -31 -31 -31 -31 -31 -31 -31
-44 -44 -45 -45 -45 -45 -45 -44 -44 -44 -45 -45 -45 -45 -45 -44 -44 -44 -44 -43 -43 -43 -43 -43 -43 -42 -42 -41 -40 -40 -40 -39 -39 -39 -38 -38 -38 -37 -37 -38 -38 -37 -37 -37 -36 -36 -35 -35 -34 -34 -33 -33 -33 -33 -32 -32 -32 -31 -31 -31 -31 -31 -31
-44 -45 -45 -46 -46 -45 -45 -44 -44 -44 -44 -45 -45 -45 -45 -44 -44 -44 -44 -43 -43 -43 -43 -43 -43 -42 -42 -42 -41 -41 -40 -40 -40 -39 -39 -38 -38 -38 -38 -38 -38 -38 -38 -37 -37 -36 -36 -36 -35 -35 -35 -34 -34 -34 -34 -33 -33 -32 -32 -32 -32 -31 -31
-44 -45 -45 -46 -46 -46 -45 -45 -44 -44 -44 -44 -45 -45 -45 -44 -45 -44 -44 -43 -43 -43 -43 -43 -42 -42 -42 -42 -41 -41 -41 -40 -40 -40 -39 -39 -39 -39 -39 -39 -39 -39 -38 -38 -38 -37 -37 -37 -36 -36 -36 -35 -35 -35 -35 -35 -34 -34 -34 -33 -33 -32 -32
-45 -45 -45 -46 -46 -46 -45 -45 -44 -44 -44 -44 -45 -45 -45 -45 -45 -45 -44 -44 -43 -43 -43 -42 -42 -42 -42 -41 -41 -41 -40 -40 -40 -40 -39 -39 -39 -40 -40 -39 -39 -39 -39 -38 -38 -38 -38 -37 -37 -37 -37 -36 -36 -36 -36 -36 -36 -35 -35 -34 -34 -34 -33
-45 -45 -45 -46 -46 -46 -46 -45 -44 -44 -44 -44 -45 -45 -45 -45 -45 -45 -44 -44 -43 -43 -42 -42 -42 -42 -42 -41 -41 -40 -40 -40 -40 -40 -40 -40 -40 -40 -40 -40 -39 -39 -39 -39 -39 -39 -38 -38 -38 -38 -38 -38 -38 -38 -38 -37 -37 -37 -36 -36 -35 -35 -35
-45 -45 -45 -46 -46 -46 -46 -45 -45 -44 -44 -45 -45 -45 -45 -45 -45 -45 -44 -43 -43 -43 -42 -42 -42 -42 -42 -42 -41 -40 -40 -40 -40 -40 -40 -40 -40 -40 -41 -40 -40 -40 -40 -40 -40 -40 -39 -39 -39 -39 -39 -39 -39 -39 -39 -38 -38 -38 -37 -37 -37 -37 -36
-44 -45 -45 -46 -46 -46 -46 -45 -45 -44 -45 -45 -45 -45 -45 -45 -45 -44 -44 -43 -43 -43 -43 -43 -43 -42 -42 -41 -41 -40 -40 -40 -40 -40 -40 -40 -40 -41 -41 -41 -40 -40 -40 -40 -40 -40 -40 -40 -40 -40 -40 -40 -40 -39 -39 -39 -39 -38 -38 -38 -38 -37 -37
-44 -44 -45 -45 -46 -46 -46 -46 -45 -44 -45 -45 -45 -45 -45 -45 -45 -44 -44 -43 -43 -43 -43 -44 -43 -42 -41 -41 -40 -40 -40 -40 -40 -40 -40 -40 -40 -41 -41 -40 -40 -40 -40 -40 -40 -40 -40 -40 -40 -40 -40 -40 -40 -40 -40 -40 -40 -39 -39 -39 -39 -38 -38
-44 -44 -44 -45 -45 -46 -46 -46 -45 -45 -45 -45 -45 -45 -45 -45 -44 -44 -44 -44 -44 -44 -44 -43 -42 -41 -41 -40 -40 -39 -39 -39 -40 -40 -39 -39 -40 -40 -40 -40 -40 -40 -40 -40 -40 -40 -40 -40 -40 -40 -40 -40 -40 -40 -40 -40 -40 -40 -40 -40 -39 -39 -39
-43 -43 -44 -44 -45 -45 -45 -46 -46 -45 -45 -45 -45 -45 -45 -45 -45 -44 -44 -44 -44 -44 -44 -43 -41 -41 -40 -40 -40 -39 -39 -39 -39 -39 -39 -40 -40 -40 -40 -40 -40 -40 -40 -40 -40 -40 -40 -40 -40 -40 -40 -40 -40 -40 -40 -40 -40 -40 -40 -40 -40 -39 -39
-43 -43 -43 -44 -45 -45 -45 -45 -45 -45 -45 -45 -45 -45 -45 -45 -45 -45 -44 -44 -44 -44 -43 -42 -41 -40 -40 -40 -40 -40 -39 -39 -39 -39 -39 -40 -40 -40 -40 -40 -39 -39 -40 -40 -40 -40 -40 -40 -40 -40 -40 -40 -40 -40 -40 -40 -40 -40 -40 -39 -39 -39 -39
-44 -44 -43 -43 -44 -45 -45 -45 -45 -45 -45 -45 -45 -45 -45 -44 -44 -44 -44 -44 -44 -43 -42 -41 -41 -40 -40 -40 -40 -39 -39 -39 -39 -39 -39 -39 -40 -40 -39 -39 -39 -39 -39 -39 -39 -39 -39 -39 -39 -39 -39 -39 -39 -39 -39 -39 -39 -39 -39 -39 -39 -39 -38
-44 -44 -44 -44 -44 -44 -45 -45 -45 -45 -45 -45 -45 -45 -45 -44 -44 -44 -44 -44 -43 -42 -42 -41 -40 -40 -40 -40 -39 -39 -39 -39 -39 -39 -39 -39 -39 -39 -39 -39 -39 -39 -39 -39 -39 -39 -39 -39 -39 -39 -39 -39 -39 -39 -39 -39 -39 -39 -38 -38 -38 -38 -38
-43 -44 -44 -44 -44 -44 -44 -44 -44 -45 -45 -44 -44 -44 -44 -44 -44 -43 -43 -43 -42 -42 -42 -41 -40 -40 -40 -40 -39 -39 -39 -39 -39 -39 -39 -39 -39 -39 -39 -39 -39 -39 -39 -39 -39 -39 -39 -39 -39 -39 -39 -39 -39 -39 -39 -39 -38 -38 -38 -38 -38 -38 -38
-44 -44 -44 -44 -44 -44 -44 -45 -44 -44 -44 -44 -44 -44 -44 -44 -43 -43 -43 -42 -42 -42 -42 -41 -40 -40 -40 -40 -40 -39 -39 -39 -39 -39 -39 -39 -39 -39 -39 -39 -39 -39 -39 -39 -39 -39 -39 -39 -39 -39 -38 -38 -38 -38 -38 -39 -38 -38 -38 -38 -38 -38 -38
-44 -44 -44 -44 -44 -44 -44 -45 -45 -44 -44 -44 -44 -44 -43 -43 -43 -43 -43 -42 -42 -42 -42 -41 -41 -40 -40 -40 -40 -40 -39 -39 -39 -39 -39 -39 -39 -39 -39 -39 -39 -39 -38 -38 -38 -38 -38 -38 -38 -38 -38 -38 -38 -38 -38 -38 -38 -38 -38 -38 -38 -38 -38
-44 -44 -44 -44 -44 -44 -44 -44 -44 -44 -44 -44 -44 -43 -43 -43 -43 -43 -42 -42 -42 -42 -42 -41 -41 -40 -40 -40 -40 -40 -40 -39 -39 -39 -39 -39 -39 -39 -39 -39 -38 -38 -38 -38 -38 -38 -38 -38 -38 -38 -38 -38 -38 -38 -38 -38 -38 -38 -38 -38 -38 -37 -37

ECMWFFLT1_500_temp_093.txt.gz
Temp
-34 -34 -34 -34 -34 -34 -34 -34 -34 -34 -34 -34 -34 -34 -34 -34 -34 -34 -34 -34 -34 -34 -34 -34 -33 -33 -33 -33 -33 -33 -33 -32 -32 -32 -31 -30 -30 -29 -28 -28 -27 -25 -24 -24 -24 -24 -24 -24 -24 -24 -24 -24 -24 -24 -24 -23 -23 -23 -23 -23 -22 -22 -22
-35 -35 -35 -35 -35 -35 -35 -35 -35 -35 -34 -34 -34 -34 -34 -34 -34 -34 -34 -34 -34 -34 -34 -34 -34 -34 -34 -33 -33 -33 -33 -33 -33 -33 -32 -32 -31 -31 -30 -30 -29 -27 -26 -25 -25 -25 -25 -25 -24 -24 -24 -24 -24 -24 -24 -24 -23 -23 -23 -23 -23 -22 -22
-37 -37 -37 -37 -36 -36 -36 -36 -36 -36 -36 -35 -35 -35 -35 -35 -34 -34 -34 -34 -34 -34 -34 -34 -34 -34 -34 -34 -34 -33 -33 -33 -33 -33 -33 -33 -32 -32 -31 -31 -30 -29 -28 -27 -26 -26 -26 -26 -25 -25 -24 -24 -24 -24 -24 -24 -24 -24 -24 -24 -24 -23 -22
-38 -38 -38 -37 -37 -37 -37 -37 -37 -37 -36 -36 -36 -36 -36 -36 -35 -35 -35 -34 -34 -34 -34 -34 -34 -34 -34 -34 -34 -34 -34 -33 -33 -33 -33 -33 -33 -33 -32 -32 -32 -31 -30 -29 -28 -27 -27 -27 -27 -26 -25 -25 -24 -24 -24 -24 -24 -24 -24 -24 -24 -24 -23
-38 -38 -38 -38 -38 -38 -37 -37 -37 -37 -37 -37 -37 -37 -37 -36 -36 -36 -36 -35 -35 -35 -35 -34 -34 -34 -34 -34 -34 -34 -34 -34 -34 -33 -33 -33 -33 -33 -33 -33 -32 -32 -31 -31 -30 -29 -28 -28 -28 -27 -26 -26 -25 -25 -24 -24 -24 -24 -24 -24 -24 -24 -24
-39 -38 -38 -38 -38 -38 -38 -37 -37 -37 -37 -37 -37 -37 -37 -37 -37 -36 -36 -36 -36 -36 -36 -35 -35 -35 -34 -34 -34 -34 -34 -34 -34 -34 -34 -34 -33 -33 -33 -33 -33 -33 -32 -32 -31 -30 -30 -30 -29 -29 -28 -27 -27 -26 -25 -25 -24 -24 -24 -24 -24 -24 -24
-39 -39 -39 -38 -38 -38 -38 -38 -38 -38 -38 -38 -38 -38 -37 -37 -37 -37 -37 -37 -37 -36 -36 -36 -36 -36 -35 -35 -35 -34 -34 -34 -34 -34 -34 -34 -34 -34 -33 -33 -33 -33 -33 -32 -32 -32 -31 -31 -31 -30 -30 -29 -28 -27 -26 -26 -25 -25 -25 -25 -24 -24 -24
-39 -39 -39 -39 -38 -38 -38 -38 -38 -38 -38 -38 -38 -38 -38 -38 -38 -38 -37 -37 -37 -37 -37 -37 -37 -36 -36 -36 -36 -35 -35 -35 -34 -34 -34 -34 -34 -34 -34 -33 -33 -33 -33 -33 -32 -32 -32 -31 -31 -31 -31 -30 -30 -29 -28 -27 -26 -26 -25 -25 -25 -25 -24
-40 -39 -39 -39 -39 -38 -38 -38 -38 -39 -39 -39 -39 -39 -38 -38 -38 -38 -38 -38 -38 -38 -37 -37 -37 -37 -37 -37 -37 -36 -36 -36 -35 -35 -34 -34 -34 -34 -34 -34 -33 -33 -33 -33 -33 -32 -32 -32 -32 -32 -32 -31 -31 -30 -29 -29 -28 -27 -26 -26 -25 -25 -25
-40 -40 -40 -39 -39 -39 -39 -39 -39 -39 -39 -39 -39 -39 -39 -39 -38 -38 -38 -38 -38 -38 -38 -38 -38 -38 -38 -37 -37 -37 -37 -37 -36 -36 -35 -35 -35 -34 -34 -34 -34 -34 -33 -33 -33 -33 -33 -32 -32 -32 -32 -32 -32 -31 -31 -30 -29 -28 -27 -27 -26 -26 -26
-41 -40 -40 -40 -39 -39 -39 -40 -40 -40 -40 -40 -40 -39 -39 -39 -39 -39 -39 -39 -39 -39 -39 -39 -39 -39 -38 -38 -38 -38 -37 -37 -37 -37 -36 -36 -35 -35 -35 -34 -34 -34 -34 -33 -33 -33 -33 -32 -32 -32 -32 -32 -32 -32 -32 -31 -31 -30 -29 -28 -27 -26 -26
-41 -41 -41 -40 -40 -40 -40 -40 -40 -40 -40 -40 -40 -40 -40 -40 -39 -39 -39 -40 -40 -40 -40 -40 -40 -40 -39 -39 -39 -38 -38 -38 -38 -38 -37 -37 -37 -36 -35 -35 -34 -34 -34 -34 -33 -33 -33 -33 -32 -32 -32 -32 -32 -32 -32 -32 -32 -31 -30 -30 -29 -28 -27
-41 -41 -41 -41 -40 -40 -41 -41 -41 -41 -41 -41 -41 -42 -41 -41 -40 -40 -40 -41 -41 -41 -41 -41 -41 -41 -40 -40 -40 -39 -39 -39 -39 -38 -38 -38 -37 -37 -36 -36 -35 -34 -34 -34 -33 -33 -33 -33 -33 -32 -32 -32 -32 -32 -32 -32 -32 -32 -31 -31 -30 -29 -28
-41 -41 -41 -41 -41 -41 -41 -42 -42 -42 -42 -42 -42 -43 -43 -42 -42 -42 -42 -42 -42 -42 -42 -42 -42 -42 -42 -42 -41 -41 -40 -40 -40 -39 -39 -39 -38 -38 -37 -37 -36 -35 -35 -34 -34 -33 -33 -33 -33 -33 -32 -32 -32 -32 -32 -32 -32 -32 -32 -32 -31 -30 -30
-41 -42 -42 -42 -41 -41 -42 -42 -43 -43 -43 -43 -43 -43 -43 -43 -43 -43 -43 -43 -43 -43 -43 -43 -43 -42 -42 -42 -42 -42 -42 -41 -41 -40 -40 -40 -39 -39 -38 -37 -37 -36 -36 -35 -34 -33 -33 -33 -33 -33 -33 -33 -33 -32 -32 -32 -32 -32 -32 -32 -32 -31 -31
-42 -42 -42 -42 -42 -42 -42 -43 -43 -43 -43 -44 -44 -44 -44 -44 -44 -44 -44 -44 -44 -44 -44 -43 -43 -43 -43 -43 -43 -43 -43 -43 -42 -42 -41 -40 -40 -40 -39 -38 -37 -37 -36 -36 -35 -35 -34 -33 -33 -33 -33 -33 -33 -33 -33 -32 -32 -32 -32 -32 -32 -32 -31
-42 -42 -42 -42 -42 -42 -42 -43 -44 -44 -44 -44 -44 -44 -44 -44 -44 -44 -44 -44 -44 -44 -44 -44 -44 -44 -44 -43 -43 -43 -43 -43 -43 -43 -42 -41 -41 -40 -40 -39 -39 -38 -38 -37 -36 -36 -35 -34 -34 -33 -33 -33 -33 -33 -33 -33 -33 -32 -32 -32 -32 -32 -32
-42 -42 -42 -42 -42 -43 -43 -43 -44 -44 -44 -44 -44 -45 -45 -45 -44 -44 -45 -45 -44 -44 -44 -44 -45 -44 -44 -44 -43 -43 -44 -44 -44 -43 -43 -42 -41 -41 -40 -40 -40 -40 -39 -38 -38 -37 -36 -36 -35 -34 -33 -33 -33 -33 -33 -33 -33 -33 -32 -32 -32 -32 -32
-42 -42 -43 -43 -43 -43 -43 -44 -44 -44 -44 -44 -44 -45 -45 -45 -45 -45 -45 -45 -44 -44 -45 -45 -44 -44 -44 -44 -43 -43 -43 -44 -44 -44 -43 -43 -42 -41 -40 -40 -40 -41 -40 -40 -39 -38 -37 -36 -36 -35 -34 -34 -33 -33 -33 -33 -32 -33 -33 -33 -32 -32 -32
-42 -43 -43 -43 -43 -43 -44 -44 -44 -44 -44 -44 -44 -45 -45 -45 -45 -45 -44 -44 -44 -45 -45 -45 -44 -44 -44 -44 -44 -44 -44 -44 -44 -44 -43 -42 -42 -41 -40 -40 -41 -41 -41 -40 -40 -39 -38 -37 -36 -36 -35 -34 -34 -33 -33 -33 -32 -32 -33 -33 -32 -32 -32
-42 -43 -43 -43 -43 -44 -44 -44 -44 -44 -44 -44 -44 -45 -45 -45 -45 -45 -44 -44 -45 -45 -45 -45 -44 -44 -44 -45 -45 -45 -45 -45 -45 -44 -43 -42 -41 -41 -41 -41 -41 -41 -41 -40 -40 -39 -39 -38 -37 -36 -36 -35 -35 -34 -34 -33 -33 -32 -32 -32 -32 -32 -32
-42 -43 -43 -44 -44 -44 -44 -45 -45 -44 -44 -44 -44 -45 -45 -45 -45 -45 -44 -44 -45 -45 -45 -45 -44 -44 -45 -45 -45 -45 -45 -45 -45 -44 -44 -43 -42 -42 -42 -41 -41 -41 -41 -40 -40 -40 -39 -39 -38 -37 -37 -36 -36 -35 -35 -34 -34 -33 -33 -32 -32 -32 -32
-42 -43 -43 -44 -44 -44 -45 -45 -45 -44 -44 -44 -44 -45 -45 -45 -45 -45 -45 -45 -45 -45 -45 -45 -45 -45 -45 -45 -45 -45 -44 -44 -44 -43 -43 -43 -43 -42 -42 -41 -41 -41 -41 -40 -40 -40 -40 -39 -39 -38 -38 -37 -37 -36 -36 -36 -35 -35 -34 -33 -32 -32 -32
-42 -43 -43 -44 -44 -44 -45 -45 -45 -44 -44 -44 -44 -45 -45 -45 -45 -45 -45 -45 -45 -45 -44 -44 -45 -44 -44 -44 -44 -44 -43 -43 -43 -43 -42 -42 -42 -42 -42 -41 -41 -41 -41 -40 -40 -40 -40 -40 -40 -39 -39 -39 -38 -38 -37 -37 -36 -36 -35 -34 -34 -33 -33
-42 -43 -43 -44 -44 -44 -45 -45 -45 -45 -44 -44 -44 -45 -45 -45 -45 -45 -45 -45 -45 -44 -44 -44 -44 -44 -44 -43 -43 -43 -43 -43 -43 -43 -42 -42 -42 -42 -41 -41 -41 -41 -41 -40 -40 -40 -40 -40 -40 -40 -40 -39 -39 -39 -38 -38 -37 -37 -36 -36 -35 -35 -34
-42 -42 -43 -44 -44 -44 -45 -45 -45 -45 -45 -44 -45 -45 -45 -45 -45 -45 -45 -45 -45 -44 -44 -44 -44 -44 -43 -43 -42 -42 -43 -43 -43 -43 -42 -42 -42 -41 -41 -41 -41 -41 -40 -40 -40 -40 -40 -41 -40 -40 -40 -40 -40 -39 -39 -39 -38 -38 -37 -37 -36 -36 -35
-42 -42 -43 -43 -44 -44 -45 -45 -45 -45 -45 -45 -45 -45 -45 -45 -45 -45 -45 -45 -44 -44 -44 -44 -44 -43 -43 -43 -43 -43 -43 -43 -42 -42 -42 -41 -41 -41 -40 -40 -40 -40 -40 -40 -40 -40 -41 -41 -41 -40 -40 -40 -40 -40 -40 -39 -39 -39 -38 -38 -37 -37 -36
-42 -42 -42 -43 -43 -44 -45 -45 -45 -45 -45 -45 -44 -45 -45 -45 -44 -44 -44 -44 -44 -44 -44 -44 -44 -44 -44 -44 -44 -44 -43 -42 -42 -42 -41 -41 -41 -40 -40 -40 -40 -40 -40 -40 -40 -40 -41 -41 -41 -40 -40 -40 -40 -40 -40 -40 -40 -39 -39 -39 -38 -38 -37
-42 -42 -42 -42 -43 -43 -44 -45 -45 -45 -45 -44 -44 -44 -44 -44 -44 -44 -44 -44 -43 -43 -44 -44 -44 -44 -44 -44 -44 -44 -43 -42 -41 -41 -41 -41 -40 -40 -40 -40 -40 -40 -40 -40 -40 -41 -41 -41 -41 -41 -41 -41 -41 -41 -40 -40 -40 -40 -40 -39 -39 -39 -39
-42 -42 -42 -42 -42 -43 -44 -44 -45 -45 -44 -44 -44 -44 -44 -44 -44 -44 -44 -44 -44 -44 -44 -44 -44 -44 -44 -44 -44 -43 -42 -42 -41 -41 -41 -40 -40 -40 -40 -40 -40 -40 -40 -40 -40 -40 -41 -41 -41 -41 -41 -41 -41 -41 -41 -40 -40 -40 -40 -40 -40 -39 -39
-42 -42 -42 -42 -42 -42 -43 -44 -44 -45 -44 -44 -44 -44 -44 -44 -44 -44 -44 -44 -44 -44 -44 -44 -44 -44 -44 -43 -43 -43 -42 -41 -41 -41 -41 -40 -40 -40 -39 -39 -39 -40 -40 -40 -40 -40 -41 -41 -41 -41 -41 -41 -41 -41 -41 -41 -40 -40 -40 -40 -40 -40 -40
-42 -43 -43 -43 -42 -42 -43 -43 -44 -44 -44 -44 -44 -44 -44 -43 -44 -44 -44 -44 -44 -44 -44 -44 -44 -43 -43 -43 -43 -42 -41 -41 -41 -41 -40 -40 -40 -40 -39 -39 -39 -40 -40 -40 -40 -40 -40 -40 -40 -40 -40 -40 -40 -41 -41 -41 -41 -40 -40 -40 -40 -40 -40
-43 -43 -43 -43 -43 -43 -43 -43 -43 -44 -44 -44 -44 -44 -44 -44 -43 -44 -44 -44 -44 -44 -43 -43 -43 -43 -43 -43 -42 -42 -41 -41 -40 -40 -40 -40 -40 -40 -39 -39 -39 -40 -40 -40 -40 -40 -40 -40 -40 -40 -40 -40 -40 -40 -40 -41 -40 -40 -40 -40 -40 -40 -40
-43 -43 -43 -43 -43 -43 -43 -43 -43 -44 -44 -44 -43 -43 -43 -43 -43 -43 -43 -43 -43 -43 -43 -43 -43 -43 -43 -43 -42 -41 -41 -41 -40 -40 -40 -40 -40 -40 -40 -40 -40 -40 -40 -40 -40 -40 -40 -40 -40 -40 -40 -40 -40 -40 -40 -40 -40 -40 -40 -40 -40 -40 -40
-43 -43 -43 -43 -43 -43 -43 -43 -43 -43 -44 -44 -44 -43 -43 -43 -43 -43 -43 -43 -43 -43 -43 -43 -42 -42 -42 -42 -42 -41 -41 -41 -40 -40 -40 -40 -40 -40 -40 -40 -40 -40 -40 -40 -40 -40 -40 -40 -40 -40 -40 -40 -40 -40 -40 -40 -40 -40 -40 -40 -40 -40 -40
-42 -43 -43 -43 -43 -43 -43 -43 -43 -43 -43 -44 -44 -44 -43 -43 -43 -43 -43 -43 -43 -43 -42 -42 -42 -42 -42 -42 -41 -41 -41 -41 -40 -40 -40 -40 -40 -40 -40 -40 -40 -40 -40 -40 -40 -40 -40 -40 -40 -40 -40 -40 -40 -40 -40 -40 -40 -40 -40 -40 -40 -40 -40

ECMWFFLT1_500_temp_096.txt.gz
Temp
-37 -37 -38 -38 -38 -38 -38 -38 -38 -38 -37 -37 -37 -37 -36 -36 -36 -36 -35 -35 -35 -35 -35 -34 -34 -34 -34 -34 -34 -34 -34 -33 -33 -33 -33 -33 -33 -33 -33 -33 -32 -31 -29 -28 -28 -27 -27 -27 -27 -26 -26 -25 -25 -25 -25 -25 -24 -24 -24 -24 -24 -24 -24
-38 -39 -39 -39 -39 -39 -39 -39 -38 -38 -38 -38 -38 -37 -37 -37 -36 -36 -36 -36 -36 -35 -35 -35 -35 -35 -35 -35 -34 -34 -34 -34 -34 -34 -34 -34 -34 -34 -34 -33 -33 -33 -31 -30 -30 -29 -28 -28 -28 -27 -27 -26 -26 -25 -25 -25 -25 -24 -24 -24 -24 -24 -24
-39 -40 -40 -39 -39 -39 -39 -39 -39 -39 -39 -38 -38 -38 -37 -37 -37 -37 -36 -36 -36 -36 -36 -36 -35 -35 -35 -35 -35 -35 -35 -35 -34 -34 -34 -34 -34 -34 -34 -34 -34 -33 -33 -32 -31 -31 -30 -29 -29 -29 -28 -28 -27 -26 -26 -25 -25 -25 -25 -24 -24 -24 -24
-40 -40 -40 -40 -40 -40 -39 -39 -39 -39 -39 -39 -38 -38 -38 -37 -37 -37 -37 -36 -36 -36 -36 -36 -36 -36 -36 -36 -36 -36 -35 -35 -35 -35 -35 -34 -34 -34 -34 -34 -34 -34 -33 -33 -33 -32 -32 -31 -30 -30 -29 -29 -28 -28 -27 -26 -26 -25 -25 -25 -24 -24 -24
-40 -40 -40 -40 -40 -40 -40 -40 -40 -39 -39 -39 -38 -38 -37 -37 -37 -37 -37 -37 -37 -36 -36 -36 -36 -36 -36 -36 -36 -36 -36 -36 -36 -36 -36 -35 -35 -35 -34 -34 -34 -34 -34 -34 -33 -33 -33 -32 -32 -31 -31 -30 -30 -29 -28 -27 -27 -26 -26 -25 -25 -25 -24
-40 -40 -40 -40 -40 -40 -40 -40 -40 -40 -39 -39 -38 -38 -37 -37 -37 -37 -37 -37 -37 -37 -37 -37 -37 -37 -37 -37 -37 -37 -37 -37 -37 -36 -36 -36 -36 -36 -35 -35 -35 -34 -34 -34 -34 -33 -33 -33 -33 -32 -32 -32 -31 -31 -30 -29 -28 -27 -27 -26 -25 -25 -25
-40 -40 -40 -40 -40 -40 -40 -40 -40 -40 -39 -39 -38 -38 -37 -37 -37 -37 -37 -37 -37 -37 -38 -38 -38 -38 -38 -38 -38 -37 -37 -37 -37 -37 -37 -37 -36 -36 -36 -36 -35 -35 -35 -34 -34 -34 -33 -33 -33 -33 -33 -33 -32 -32 -31 -30 -30 -29 -28 -27 -26 -26 -25
-40 -40 -40 -40 -40 -40 -40 -40 -40 -40 -40 -39 -38 -38 -38 -38 -38 -38 -38 -38 -38 -38 -39 -39 -39 -39 -39 -39 -39 -38 -38 -38 -38 -38 -37 -37 -37 -37 -37 -36 -36 -36 -35 -35 -34 -34 -34 -33 -33 -33 -33 -33 -33 -33 -32 -32 -31 -30 -29 -29 -28 -27 -26
-40 -40 -41 -41 -41 -41 -41 -41 -41 -40 -40 -39 -39 -38 -38 -38 -38 -38 -38 -39 -39 -40 -40 -40 -40 -40 -40 -40 -39 -39 -39 -39 -39 -38 -38 -38 -38 -38 -37 -37 -37 -36 -36 -36 -35 -34 -34 -34 -34 -33 -33 -33 -33 -33 -33 -33 -32 -31 -31 -30 -29 -28 -27
-41 -41 -41 -41 -41 -41 -41 -41 -41 -41 -40 -40 -39 -39 -38 -38 -38 -39 -39 -40 -40 -41 -41 -42 -41 -41 -41 -41 -40 -40 -40 -40 -39 -39 -39 -38 -38 -38 -38 -38 -37 -37 -37 -36 -36 -35 -35 -34 -34 -34 -34 -34 -33 -33 -33 -33 -33 -32 -32 -31 -30 -29 -29
-41 -41 -41 -41 -41 -41 -41 -41 -41 -41 -40 -40 -40 -39 -39 -39 -39 -39 -40 -41 -41 -42 -42 -42 -42 -42 -42 -42 -42 -41 -41 -41 -40 -40 -40 -39 -39 -39 -39 -38 -38 -38 -37 -37 -37 -36 -36 -35 -34 -34 -34 -34 -34 -34 -33 -33 -33 -33 -32 -32 -31 -31 -30
-41 -41 -41 -41 -41 -41 -41 -41 -41 -41 -41 -40 -40 -40 -40 -40 -40 -40 -41 -42 -42 -42 -43 -43 -43 -43 -43 -43 -43 -43 -42 -42 -42 -41 -41 -40 -40 -39 -39 -39 -39 -38 -38 -38 -37 -37 -36 -36 -35 -35 -34 -34 -34 -34 -34 -33 -33 -33 -33 -33 -32 -32 -31
-41 -41 -41 -41 -41 -41 -41 -42 -41 -41 -41 -40 -40 -40 -40 -41 -41 -42 -42 -43 -43 -43 -43 -43 -43 -43 -44 -44 -44 -43 -43 -43 -43 -43 -42 -42 -41 -40 -40 -40 -39 -39 -38 -38 -38 -37 -37 -36 -36 -35 -35 -34 -34 -34 -34 -34 -33 -33 -33 -33 -33 -32 -32
-41 -41 -41 -41 -41 -41 -42 -42 -42 -41 -41 -40 -40 -40 -41 -41 -42 -42 -43 -44 -44 -44 -44 -44 -44 -44 -44 -44 -44 -44 -44 -44 -43 -43 -43 -43 -42 -42 -41 -40 -40 -39 -39 -38 -38 -38 -37 -37 -37 -36 -35 -35 -35 -34 -34 -34 -34 -34 -33 -33 -33 -33 -32
-41 -41 -41 -41 -42 -42 -42 -42 -42 -41 -41 -41 -40 -41 -41 -42 -42 -43 -44 -44 -44 -44 -44 -44 -44 -44 -44 -44 -45 -45 -45 -44 -44 -44 -44 -43 -43 -43 -42 -42 -41 -40 -40 -39 -39 -38 -38 -37 -37 -37 -36 -36 -36 -35 -34 -34 -34 -34 -34 -33 -33 -33 -33
-41 -41 -41 -41 -42 -42 -42 -42 -42 -41 -41 -41 -41 -41 -41 -42 -43 -44 -44 -44 -45 -45 -45 -44 -44 -44 -44 -44 -45 -45 -45 -45 -44 -44 -44 -44 -44 -44 -43 -43 -42 -42 -41 -41 -40 -39 -38 -38 -37 -37 -37 -37 -36 -36 -35 -35 -34 -34 -34 -33 -33 -33 -33
-41 -41 -41 -41 -42 -42 -42 -42 -42 -42 -41 -41 -41 -41 -42 -42 -43 -44 -44 -45 -45 -45 -45 -45 -45 -45 -44 -44 -44 -45 -45 -45 -45 -44 -44 -44 -44 -44 -44 -43 -43 -43 -43 -42 -42 -41 -40 -39 -38 -38 -37 -37 -37 -37 -36 -35 -35 -34 -34 -34 -33 -33 -33
-41 -41 -41 -42 -42 -42 -42 -42 -42 -42 -41 -41 -41 -42 -42 -42 -43 -44 -44 -45 -45 -45 -45 -45 -45 -45 -45 -44 -44 -44 -44 -45 -45 -45 -44 -44 -44 -44 -44 -43 -44 -44 -44 -44 -43 -43 -42 -41 -39 -39 -38 -38 -37 -37 -37 -36 -35 -34 -34 -34 -33 -33 -33
-41 -41 -42 -42 -42 -42 -42 -42 -42 -42 -42 -41 -42 -42 -42 -43 -43 -44 -44 -45 -45 -45 -45 -45 -45 -45 -45 -44 -44 -44 -45 -45 -45 -45 -45 -45 -44 -43 -43 -44 -44 -44 -44 -44 -44 -43 -43 -42 -40 -39 -39 -38 -38 -37 -37 -37 -36 -35 -34 -34 -33 -33 -33
-41 -41 -42 -42 -42 -42 -42 -42 -42 -42 -42 -42 -42 -42 -43 -43 -43 -44 -44 -45 -45 -45 -45 -45 -45 -45 -45 -45 -45 -45 -45 -45 -46 -46 -45 -45 -44 -44 -44 -44 -44 -44 -43 -43 -43 -43 -43 -43 -42 -40 -39 -38 -38 -38 -37 -37 -36 -36 -35 -35 -34 -33 -33
-41 -41 -42 -42 -42 -42 -43 -43 -43 -43 -42 -42 -42 -43 -43 -43 -44 -44 -44 -45 -45 -45 -45 -45 -46 -46 -45 -45 -45 -45 -45 -45 -46 -46 -45 -45 -45 -45 -45 -44 -44 -43 -43 -43 -43 -43 -43 -43 -43 -42 -41 -39 -38 -38 -38 -38 -37 -37 -36 -35 -34 -34 -33
-41 -41 -42 -42 -42 -43 -43 -43 -43 -43 -42 -42 -43 -43 -43 -43 -44 -44 -44 -44 -45 -45 -45 -45 -45 -46 -46 -46 -46 -46 -46 -46 -46 -46 -46 -46 -46 -45 -44 -44 -43 -43 -43 -43 -43 -43 -43 -43 -43 -42 -42 -41 -40 -39 -39 -38 -38 -38 -37 -36 -35 -34 -34
-41 -41 -42 -42 -42 -43 -43 -43 -43 -43 -43 -43 -43 -44 -44 -44 -44 -44 -44 -44 -45 -45 -45 -45 -45 -45 -46 -46 -46 -46 -46 -46 -47 -47 -47 -46 -46 -45 -45 -44 -44 -43 -43 -43 -43 -43 -43 -43 -42 -42 -42 -42 -41 -41 -40 -40 -39 -38 -37 -36 -35 -35 -34
-41 -41 -41 -42 -42 -43 -43 -43 -44 -43 -43 -43 -43 -44 -44 -44 -44 -44 -44 -44 -45 -45 -45 -45 -45 -45 -46 -46 -46 -46 -46 -46 -46 -46 -46 -46 -45 -45 -44 -44 -43 -43 -43 -42 -42 -42 -42 -42 -42 -42 -42 -42 -42 -41 -41 -40 -40 -39 -38 -37 -36 -36 -35
-41 -41 -41 -42 -42 -42 -43 -43 -44 -44 -43 -43 -44 -44 -44 -44 -44 -44 -44 -44 -45 -45 -45 -45 -45 -45 -46 -46 -46 -46 -46 -46 -46 -45 -45 -44 -44 -44 -43 -43 -43 -43 -42 -42 -42 -42 -42 -42 -42 -42 -42 -42 -42 -42 -41 -41 -40 -40 -39 -38 -37 -36 -35
-41 -41 -41 -42 -42 -42 -43 -43 -44 -44 -43 -43 -44 -44 -44 -44 -44 -44 -44 -44 -45 -44 -44 -44 -45 -45 -45 -45 -45 -45 -44 -44 -44 -44 -44 -43 -43 -43 -43 -43 -42 -42 -42 -42 -42 -42 -42 -42 -42 -42 -42 -42 -42 -41 -41 -41 -41 -40 -40 -39 -38 -37 -36
-40 -41 -41 -42 -42 -42 -43 -43 -44 -44 -44 -44 -44 -44 -44 -44 -44 -44 -44 -44 -44 -44 -44 -44 -44 -44 -44 -44 -44 -43 -43 -43 -43 -43 -44 -43 -43 -43 -43 -42 -42 -42 -42 -42 -42 -42 -42 -42 -42 -42 -42 -41 -41 -41 -41 -41 -41 -41 -40 -40 -39 -38 -37
-40 -41 -41 -41 -42 -42 -42 -43 -43 -43 -44 -44 -44 -44 -44 -44 -44 -44 -44 -44 -44 -44 -44 -44 -44 -44 -44 -43 -43 -43 -43 -43 -43 -43 -43 -43 -43 -43 -42 -42 -42 -42 -42 -42 -42 -42 -42 -42 -42 -42 -42 -42 -42 -41 -41 -41 -41 -41 -40 -40 -39 -39 -38
-40 -40 -41 -41 -41 -41 -42 -42 -43 -43 -43 -43 -44 -44 -44 -44 -44 -44 -44 -45 -44 -44 -44 -43 -43 -43 -43 -43 -43 -43 -43 -43 -44 -44 -43 -43 -43 -42 -42 -42 -42 -42 -42 -42 -42 -42 -41 -41 -42 -42 -42 -42 -42 -42 -42 -41 -41 -41 -40 -40 -40 -39 -39
-40 -40 -41 -41 -41 -41 -42 -42 -43 -43 -43 -43 -43 -44 -44 -43 -43 -44 -44 -44 -44 -44 -43 -43 -43 -43 -43 -43 -43 -43 -44 -44 -44 -44 -44 -43 -43 -42 -42 -41 -41 -41 -42 -42 -42 -41 -41 -41 -42 -42 -42 -42 -42 -42 -42 -42 -41 -41 -41 -40 -40 -39 -39
-41 -41 -41 -41 -41 -41 -42 -42 -42 -43 -43 -43 -43 -44 -44 -43 -43 -43 -44 -44 -44 -43 -43 -43 -43 -43 -43 -43 -43 -44 -44 -44 -44 -44 -44 -43 -42 -42 -41 -41 -41 -41 -41 -41 -41 -41 -41 -41 -41 -42 -41 -41 -41 -42 -42 -42 -41 -41 -41 -40 -40 -40 -40
-41 -41 -41 -41 -41 -41 -41 -42 -42 -42 -43 -43 -43 -44 -44 -44 -43 -43 -44 -44 -43 -43 -43 -43 -43 -43 -43 -43 -43 -43 -43 -44 -44 -43 -43 -43 -42 -42 -41 -41 -41 -41 -41 -41 -41 -40 -40 -41 -41 -41 -41 -41 -41 -41 -42 -42 -41 -41 -41 -41 -41 -40 -40
-41 -41 -41 -41 -42 -42 -42 -42 -42 -42 -42 -43 -43 -43 -43 -43 -43 -43 -43 -44 -43 -43 -43 -43 -43 -43 -43 -43 -43 -43 -43 -43 -43 -43 -43 -42 -42 -41 -41 -41 -41 -41 -41 -41 -40 -40 -40 -40 -41 -41 -41 -41 -41 -41 -41 -42 -41 -41 -41 -41 -41 -41 -40
-41 -41 -41 -41 -42 -42 -42 -42 -42 -42 -42 -43 -43 -43 -43 -43 -43 -42 -42 -43 -43 -43 -43 -43 -43 -43 -43 -43 -43 -43 -43 -43 -43 -43 -42 -42 -41 -41 -41 -41 -41 -41 -41 -41 -40 -40 -40 -41 -41 -41 -41 -41 -41 -41 -41 -41 -41 -41 -41 -41 -41 -41 -41
-41 -41 -41 -41 -41 -42 -42 -42 -42 -42 -42 -42 -43 -43 -43 -43 -43 -43 -42 -42 -43 -43 -43 -43 -43 -43 -43 -43 -43 -42 -42 -43 -43 -42 -42 -42 -41 -41 -41 -41 -41 -41 -41 -41 -41 -41 -41 -41 -41 -41 -41 -41 -41 -41 -41 -41 -41 -41 -41 -41 -41 -41 -41
-41 -41 -41 -41 -41 -42 -42 -42 -42 -42 -42 -42 -42 -43 -43 -43 -43 -43 -43 -42 -42 -43 -43 -43 -43 -43 -42 -42 -42 -42 -42 -42 -43 -42 -42 -41 -41 -41 -41 -41 -41 -41 -41 -41 -41 -41 -41 -41 -41 -41 -41 -41 -41 -41 -41 -41 -41 -41 -41 -41 -41 -41 -41